Observation data for Sterling City on 12/07/2018      Previous  Date       Current Mesonet Observations  Soil Data  Daily Summary Page  Observations in Plain Language
KSC1 070600Z 35006KT 04/M00 A303 RMK A01 T00421003  RH  072%=      5-min Rain = 0
KSC1 070601Z 35004KT 04/M00 A303 RMK A01 T00421003  RH  072%=      5-min Rain = 0
KSC1 070602Z 36004KT 04/M00 A303 RMK A01 T00421003  RH  072%=      5-min Rain = 0
KSC1 070603Z 36005KT 04/M00 A303 RMK A01 T00421003  RH  073%=      5-min Rain = 0
KSC1 070604Z 36005KT 04/M00 A303 RMK A01 T00431002  RH  073%=      5-min Rain = 0
KSC1 070605Z 35005KT 04/M00 A3029 RMK A01 T00431002  RH  073%=      5-min Rain = 0
KSC1 070606Z 35005KT 04/M00 A3029 RMK A01 T00431002  RH  073%=      5-min Rain = 0
KSC1 070607Z 35006KT 04/M00 A3029 RMK A01 T00431002  RH  073%=      5-min Rain = 0
KSC1 070608Z 00005KT 04/M00 A3029 RMK A01 T00431002  RH  073%=      5-min Rain = 0
KSC1 070609Z 01006KT 04/M00 A3029 RMK A01 T00431002  RH  073%=      5-min Rain = 0
KSC1 070610Z 00005KT 04/M00 A3029 RMK A01 T00431002  RH  073%=      5-min Rain = 0
KSC1 070611Z 01006KT 04/M00 A3028 RMK A01 T00431002  RH  073%=      5-min Rain = 0
KSC1 070612Z 01004KT 04/M00 A3028 RMK A01 T00431001  RH  073%=      5-min Rain = 0
KSC1 070613Z 36006KT 04/M00 A3028 RMK A01 T00431001  RH  073%=      5-min Rain = 0
KSC1 070614Z 36006KT 04/M00 A3028 RMK A01 T00421002  RH  073%=      5-min Rain = 0
KSC1 070615Z 36007KT 04/M00 A3028 RMK A01 T00421002  RH  073%=      5-min Rain = 0
KSC1 070616Z 35006KT 04/M00 A3028 RMK A01 T00431002  RH  073%=      5-min Rain = 0
KSC1 070617Z 36007KT 04/M00 A3028 RMK A01 T00421002  RH  073%=      5-min Rain = 0
KSC1 070618Z 35008KT 04/M00 A3028 RMK A01 T00421001  RH  073%=      5-min Rain = 0
KSC1 070619Z 36006KT 04/M00 A3028 RMK A01 T00421001  RH  073%=      5-min Rain = 0
KSC1 070620Z 00006KT 04/M00 A3028 RMK A01 T00431001  RH  073%=      5-min Rain = 0
KSC1 070621Z 36007KT 04/M00 A3028 RMK A01 T00431001  RH  073%=      5-min Rain = 0
KSC1 070622Z 01006KT 04/M00 A3028 RMK A01 T00421001  RH  073%=      5-min Rain = 0
KSC1 070623Z 01005KT 04/M00 A3028 RMK A01 T00421001  RH  074%=      5-min Rain = 0
KSC1 070624Z 01005KT 04/M00 A3028 RMK A01 T00421001  RH  074%=      5-min Rain = 0
KSC1 070625Z 34004KT 04/M00 A3029 RMK A01 T00421001  RH  074%=      5-min Rain = 0
KSC1 070626Z 35006KT 04/M00 A3029 RMK A01 T00421001  RH  074%=      5-min Rain = 0
KSC1 070627Z 00006KT 04/M00 A3029 RMK A01 T00421001  RH  074%=      5-min Rain = 0
KSC1 070628Z 35007KT 04/M00 A3029 RMK A01 T00421001  RH  074%=      5-min Rain = 0
KSC1 070629Z 35006KT 04/M00 A3029 RMK A01 T00421001  RH  074%=      5-min Rain = 0
KSC1 070630Z 35006KT 04/00 A3029 RMK A01 T004200-0  RH  074%=      5-min Rain = 0
KSC1 070631Z 00008KT 04/00 A3029 RMK A01 T004200-0  RH  074%=      5-min Rain = 0
KSC1 070632Z 36007KT 04/M00 A3029 RMK A01 T00411001  RH  074%=      5-min Rain = 0
KSC1 070633Z 36007KT 04/M00 A3029 RMK A01 T00411001  RH  074%=      5-min Rain = 0
KSC1 070634Z 35007KT 04/M00 A3029 RMK A01 T00411001  RH  074%=      5-min Rain = 0
KSC1 070635Z 35006KT 04/00 A3029 RMK A01 T004100-0  RH  074%=      5-min Rain = 0
KSC1 070636Z 00008KT 04/00 A3029 RMK A01 T00410000  RH  075%=      5-min Rain = 0
KSC1 070637Z 00009KT 04/00 A3029 RMK A01 T00410000  RH  075%=      5-min Rain = 0
KSC1 070638Z 01008KT 04/00 A3029 RMK A01 T00410000  RH  075%=      5-min Rain = 0
KSC1 070639Z 01009KT 04/00 A3029 RMK A01 T00410000  RH  075%=      5-min Rain = 0
KSC1 070640Z 01008KT 04/00 A3029 RMK A01 T00410000  RH  075%=      5-min Rain = 0
KSC1 070641Z 00008KT 04/00 A3029 RMK A01 T004000-0  RH  075%=      5-min Rain = 0
KSC1 070642Z 01008KT 04/00 A3029 RMK A01 T00410000  RH  075%=      5-min Rain = 0
KSC1 070643Z 00008KT 04/00 A3029 RMK A01 T00400000  RH  075%=      5-min Rain = 0
KSC1 070644Z 00007KT 04/00 A3029 RMK A01 T00400000  RH  075%=      5-min Rain = 0
KSC1 070645Z 00006KT 04/00 A3029 RMK A01 T00400000  RH  075%=      5-min Rain = 0
KSC1 070646Z 01005KT 04/00 A3029 RMK A01 T00410001  RH  075%=      5-min Rain = 0
KSC1 070647Z 01006KT 04/00 A3029 RMK A01 T00400001  RH  075%=      5-min Rain = 0
KSC1 070648Z 01007KT 04/00 A3029 RMK A01 T00400000  RH  075%=      5-min Rain = 0
KSC1 070649Z 01007KT 04/00 A3029 RMK A01 T00400001  RH  075%=      5-min Rain = 0
KSC1 070650Z 00007KT 04/00 A3029 RMK A01 T00400000  RH  075%=      5-min Rain = 0
KSC1 070651Z 00007KT 04/00 A3028 RMK A01 T00410001  RH  075%=      5-min Rain = 0
KSC1 070652Z 00006KT 04/00 A3028 RMK A01 T00400000  RH  075%=      5-min Rain = 0
KSC1 070653Z 01007KT 04/00 A3028 RMK A01 T00400001  RH  075%=      5-min Rain = 0
KSC1 070654Z 01006KT 04/00 A3028 RMK A01 T00400001  RH  075%=      5-min Rain = 0
KSC1 070655Z 01005KT 04/00 A3028 RMK A01 T00410001  RH  075%=      5-min Rain = 0
KSC1 070656Z 02004KT 04/00 A3028 RMK A01 T00400001  RH  075%=      5-min Rain = 0
KSC1 070657Z 01005KT 04/00 A3028 RMK A01 T00400001  RH  075%=      5-min Rain = 0
KSC1 070658Z 02006KT 04/00 A3028 RMK A01 T00400001  RH  075%=      5-min Rain = 0
KSC1 070659Z 02006KT 04/00 A3027 RMK A01 T00410001  RH  075%=      5-min Rain = 0
KSC1 070700Z 01006KT 04/00 A3027 RMK A01 T00400001  RH  075%=      5-min Rain = 0
KSC1 070701Z 01009KT 04/00 A3027 RMK A01 T00410001  RH  075%=      5-min Rain = 0
KSC1 070702Z 01010KT 04/00 A3027 RMK A01 T00400001  RH  075%=      5-min Rain = 0
KSC1 070703Z 00009KT 04/00 A3027 RMK A01 T00400000  RH  075%=      5-min Rain = 0
KSC1 070704Z 01008KT 04/00 A3027 RMK A01 T00400000  RH  075%=      5-min Rain = 0
KSC1 070705Z 00006KT 04/00 A3027 RMK A01 T00400000  RH  075%=      5-min Rain = 0
KSC1 070706Z 00008KT 04/00 A3027 RMK A01 T00400000  RH  075%=      5-min Rain = 0
KSC1 070707Z 00008KT 04/00 A3027 RMK A01 T00400000  RH  075%=      5-min Rain = 0
KSC1 070708Z 00006KT 04/00 A3028 RMK A01 T004000-0  RH  075%=      5-min Rain = 0
KSC1 070709Z 00008KT 04/00 A3028 RMK A01 T004000-0  RH  075%=      5-min Rain = 0
KSC1 070710Z 01008KT 04/00 A3028 RMK A01 T004000-0  RH  075%=      5-min Rain = 0
KSC1 070711Z 02007KT 04/00 A3028 RMK A01 T004000-0  RH  075%=      5-min Rain = 0
KSC1 070712Z 01008KT 04/00 A3028 RMK A01 T004000-0  RH  075%=      5-min Rain = 0
KSC1 070713Z 01009KT 04/00 A3028 RMK A01 T00400000  RH  075%=      5-min Rain = 0
KSC1 070714Z 01008KT 04/00 A3028 RMK A01 T00400001  RH  075%=      5-min Rain = 0
KSC1 070715Z 36007KT 04/00 A3028 RMK A01 T00400000  RH  075%=      5-min Rain = 0
KSC1 070716Z 36007KT 04/00 A3028 RMK A01 T00400000  RH  075%=      5-min Rain = 0
KSC1 070717Z 35009KT 04/00 A3029 RMK A01 T00400000  RH  075%=      5-min Rain = 0
KSC1 070718Z 35009KT 04/00 A3029 RMK A01 T00400000  RH  075%=      5-min Rain = 0
KSC1 070719Z 36009KT 04/00 A3029 RMK A01 T00400000  RH  075%=      5-min Rain = 0
KSC1 070720Z 35009KT 04/00 A3029 RMK A01 T00400000  RH  075%=      5-min Rain = 0
KSC1 070721Z 00006KT 04/00 A3029 RMK A01 T00400001  RH  076%=      5-min Rain = 0
KSC1 070722Z 01008KT 04/00 A3029 RMK A01 T00400001  RH  076%=      5-min Rain = 0
KSC1 070723Z 00008KT 04/00 A3029 RMK A01 T00400000  RH  075%=      5-min Rain = 0
KSC1 070724Z 00007KT 04/00 A3029 RMK A01 T00400001  RH  075%=      5-min Rain = 0
KSC1 070725Z 01005KT 04/00 A303 RMK A01 T00400000  RH  075%=      5-min Rain = 0
KSC1 070726Z 35005KT 04/00 A303 RMK A01 T00400000  RH  075%=      5-min Rain = 0
KSC1 070727Z 34006KT 04/00 A303 RMK A01 T00400001  RH  075%=      5-min Rain = 0
KSC1 070728Z 35006KT 04/00 A303 RMK A01 T00400000  RH  075%=      5-min Rain = 0
KSC1 070729Z 00005KT 04/00 A303 RMK A01 T004000-0  RH  075%=      5-min Rain = 0
KSC1 070730Z 35007KT 04/00 A303 RMK A01 T004000-0  RH  075%=      5-min Rain = 0
KSC1 070731Z 35007KT 04/00 A303 RMK A01 T00400000  RH  075%=      5-min Rain = 0
KSC1 070732Z 00006KT 04/00 A303 RMK A01 T00400000  RH  075%=      5-min Rain = 0
KSC1 070733Z 36004KT 04/00 A303 RMK A01 T00400000  RH  075%=      5-min Rain = 0
KSC1 070734Z 36005KT 04/00 A303 RMK A01 T00400000  RH  075%=      5-min Rain = 0
KSC1 070735Z 35006KT 04/00 A303 RMK A01 T00400001  RH  075%=      5-min Rain = 0
KSC1 070736Z 35007KT 04/00 A303 RMK A01 T00400001  RH  076%=      5-min Rain = 0
KSC1 070737Z 35006KT 04/00 A3029 RMK A01 T00400000  RH  075%=      5-min Rain = 0
KSC1 070738Z 35009KT 04/00 A3029 RMK A01 T00400000  RH  075%=      5-min Rain = 0
KSC1 070739Z 34008KT 04/00 A3029 RMK A01 T00400000  RH  075%=      5-min Rain = 0
KSC1 070740Z 34008KT 04/00 A3029 RMK A01 T00400001  RH  076%=      5-min Rain = 0
KSC1 070741Z 35007KT 04/00 A3029 RMK A01 T00400001  RH  076%=      5-min Rain = 0
KSC1 070742Z 35007KT 04/00 A3029 RMK A01 T00400001  RH  076%=      5-min Rain = 0
KSC1 070743Z 36007KT 04/00 A3028 RMK A01 T00400001  RH  076%=      5-min Rain = 0
KSC1 070744Z 00007KT 04/00 A3028 RMK A01 T00400001  RH  076%=      5-min Rain = 0
KSC1 070745Z 01007KT 04/00 A3028 RMK A01 T00400001  RH  076%=      5-min Rain = 0
KSC1 070746Z 01005KT 04/00 A3028 RMK A01 T00400001  RH  076%=      5-min Rain = 0
KSC1 070747Z 01006KT 04/00 A3028 RMK A01 T00400001  RH  076%=      5-min Rain = 0
KSC1 070748Z 36004KT 04/00 A3028 RMK A01 T00400002  RH  076%=      5-min Rain = 0
KSC1 070749Z 00005KT 04/00 A3028 RMK A01 T00400003  RH  077%=      5-min Rain = 0
KSC1 070750Z 36005KT 04/00 A3028 RMK A01 T00400003  RH  077%=      5-min Rain = 0
KSC1 070751Z 36008KT 04/00 A3028 RMK A01 T00400003  RH  077%=      5-min Rain = 0
KSC1 070752Z 00008KT 04/00 A3028 RMK A01 T00390003  RH  077%=      5-min Rain = 0
KSC1 070753Z 01007KT 04/00 A3029 RMK A01 T00390003  RH  077%=      5-min Rain = 0
KSC1 070754Z 00007KT 04/00 A3029 RMK A01 T00390003  RH  078%=      5-min Rain = 0
KSC1 070755Z 00006KT 04/00 A3028 RMK A01 T00390004  RH  078%=      5-min Rain = 0
KSC1 070756Z 35008KT 04/00 A3028 RMK A01 T00390004  RH  078%=      5-min Rain = 0
KSC1 070757Z 01007KT 04/00 A3028 RMK A01 T00390003  RH  078%=      5-min Rain = 0
KSC1 070758Z 00007KT 04/00 A3028 RMK A01 T00390003  RH  078%=      5-min Rain = 0
KSC1 070759Z 01007KT 04/00 A3028 RMK A01 T00390004  RH  078%=      5-min Rain = 0
KSC1 070800Z 01006KT 04/00 A3028 RMK A01 T00390004  RH  078%=      5-min Rain = 0
KSC1 070801Z 36005KT 04/00 A3028 RMK A01 T00390004  RH  078%=      5-min Rain = 0
KSC1 070802Z 36006KT 04/00 A3029 RMK A01 T00390004  RH  078%=      5-min Rain = 0
KSC1 070803Z 35005KT 04/00 A3029 RMK A01 T00390004  RH  078%=      5-min Rain = 0
KSC1 070804Z 35006KT 04/00 A3029 RMK A01 T00390004  RH  078%=      5-min Rain = 0
KSC1 070805Z 35005KT 04/00 A3029 RMK A01 T00390004  RH  078%=      5-min Rain = 0
KSC1 070806Z 35006KT 04/00 A3029 RMK A01 T00390004  RH  078%=      5-min Rain = 0
KSC1 070807Z 35007KT 04/00 A3029 RMK A01 T00390004  RH  078%=      5-min Rain = 0
KSC1 070808Z 36006KT 04/00 A3029 RMK A01 T00390004  RH  078%=      5-min Rain = 0
KSC1 070809Z 01005KT 04/00 A3029 RMK A01 T00390004  RH  078%=      5-min Rain = 0
KSC1 070810Z 00006KT 04/00 A3029 RMK A01 T00390004  RH  078%=      5-min Rain = 0
KSC1 070811Z 00005KT 04/00 A3029 RMK A01 T00390004  RH  078%=      5-min Rain = 0
KSC1 070812Z 36006KT 04/00 A3029 RMK A01 T00390004  RH  078%=      5-min Rain = 0
KSC1 070813Z 36006KT 04/00 A3029 RMK A01 T00390004  RH  078%=      5-min Rain = 0
KSC1 070814Z 35005KT 04/00 A3029 RMK A01 T00390004  RH  078%=      5-min Rain = 0
KSC1 070815Z 34006KT 04/01 A3029 RMK A01 T00390005  RH  079%=      5-min Rain = 0
KSC1 070816Z 34007KT 04/01 A3029 RMK A01 T00390005  RH  079%=      5-min Rain = 0
KSC1 070817Z 34008KT 04/01 A3029 RMK A01 T00390005  RH  079%=      5-min Rain = 0
KSC1 070818Z 34006KT 04/01 A303 RMK A01 T00390005  RH  079%=      5-min Rain = 0
KSC1 070819Z 34009KT 04/01 A303 RMK A01 T00390006  RH  079%=      5-min Rain = 0
KSC1 070820Z 34007KT 04/01 A3029 RMK A01 T00380005  RH  079%=      5-min Rain = 0
KSC1 070821Z 35007KT 04/01 A3029 RMK A01 T00390006  RH  079%=      5-min Rain = 0
KSC1 070822Z 35007KT 04/01 A3029 RMK A01 T00390006  RH  079%=      5-min Rain = 0
KSC1 070823Z 34006KT 04/01 A303 RMK A01 T00390005  RH  079%=      5-min Rain = 0
KSC1 070824Z 36006KT 04/01 A303 RMK A01 T00380005  RH  079%=      5-min Rain = 0
KSC1 070825Z 35006KT 04/01 A303 RMK A01 T00390005  RH  079%=      5-min Rain = 0
KSC1 070826Z 36007KT 04/01 A303 RMK A01 T00390005  RH  079%=      5-min Rain = 0
KSC1 070827Z 35007KT 04/01 A303 RMK A01 T00390005  RH  078%=      5-min Rain = 0
KSC1 070828Z 35006KT 04/01 A3029 RMK A01 T00390005  RH  078%=      5-min Rain = 0
KSC1 070829Z 36006KT 04/01 A3029 RMK A01 T00390005  RH  079%=      5-min Rain = 0
KSC1 070830Z 01007KT 04/01 A3029 RMK A01 T00390005  RH  079%=      5-min Rain = 0
KSC1 070831Z 00007KT 04/01 A3029 RMK A01 T00380005  RH  079%=      5-min Rain = 0
KSC1 070832Z 35006KT 04/01 A3029 RMK A01 T00390005  RH  079%=      5-min Rain = 0
KSC1 070833Z 34007KT 04/01 A3029 RMK A01 T00390005  RH  079%=      5-min Rain = 0
KSC1 070834Z 34006KT 04/00 A3029 RMK A01 T00390004  RH  078%=      5-min Rain = 0
KSC1 070835Z 34008KT 04/00 A3029 RMK A01 T00390004  RH  078%=      5-min Rain = 0
KSC1 070836Z 36008KT 04/00 A3029 RMK A01 T00390004  RH  078%=      5-min Rain = 0
KSC1 070837Z 34005KT 04/00 A3029 RMK A01 T00390004  RH  078%=      5-min Rain = 0
KSC1 070838Z 35007KT 04/01 A3029 RMK A01 T00390005  RH  079%=      5-min Rain = 0
KSC1 070839Z 34006KT 04/01 A3029 RMK A01 T00390005  RH  079%=      5-min Rain = 0
KSC1 070840Z 34006KT 04/01 A3029 RMK A01 T00390005  RH  079%=      5-min Rain = 0
KSC1 070841Z 35007KT 04/01 A3029 RMK A01 T00390005  RH  079%=      5-min Rain = 0
KSC1 070842Z 34006KT 04/01 A3029 RMK A01 T00390005  RH  079%=      5-min Rain = 0
KSC1 070843Z 35007KT 04/01 A3029 RMK A01 T00390005  RH  079%=      5-min Rain = 0
KSC1 070844Z 34008KT 04/01 A3029 RMK A01 T00390006  RH  079%=      5-min Rain = 0
KSC1 070845Z 34007KT 04/01 A3029 RMK A01 T00380005  RH  079%=      5-min Rain = 0
KSC1 070846Z 34006KT 04/01 A3029 RMK A01 T00380006  RH  079%=      5-min Rain = 0
KSC1 070847Z 34005KT 04/01 A3029 RMK A01 T00380006  RH  080%=      5-min Rain = 0
KSC1 070848Z 34007KT 04/01 A3029 RMK A01 T00380006  RH  080%=      5-min Rain = 0
KSC1 070849Z 35006KT 04/01 A3029 RMK A01 T00380007  RH  080%=      5-min Rain = 0
KSC1 070850Z 35007KT 04/01 A3029 RMK A01 T00380007  RH  080%=      5-min Rain = 0
KSC1 070851Z 36008KT 04/01 A3029 RMK A01 T00380007  RH  080%=      5-min Rain = 0
KSC1 070852Z 35008KT 04/01 A3029 RMK A01 T00380007  RH  080%=      5-min Rain = 0
KSC1 070853Z 35007KT 04/01 A3029 RMK A01 T00380007  RH  080%=      5-min Rain = 0
KSC1 070854Z 35006KT 04/01 A3029 RMK A01 T00370007  RH  081%=      5-min Rain = 0
KSC1 070855Z 00005KT 04/01 A3029 RMK A01 T00370007  RH  081%=      5-min Rain = 0
KSC1 070856Z 01005KT 04/01 A3029 RMK A01 T00370008  RH  081%=      5-min Rain = 0
KSC1 070857Z 00005KT 04/01 A3029 RMK A01 T00370008  RH  081%=      5-min Rain = 0
KSC1 070858Z 01004KT 04/01 A3029 RMK A01 T00380008  RH  081%=      5-min Rain = 0
KSC1 070859Z 35005KT 04/01 A3029 RMK A01 T00370008  RH  081%=      5-min Rain = 0
KSC1 070900Z 35006KT 04/01 A3029 RMK A01 T00370008  RH  081%=      5-min Rain = 0
KSC1 070901Z 36007KT 04/01 A3029 RMK A01 T00370007  RH  081%=      5-min Rain = 0
KSC1 070902Z 35006KT 04/01 A303 RMK A01 T00370007  RH  081%=      5-min Rain = 0
KSC1 070903Z 01004KT 04/01 A303 RMK A01 T00370007  RH  081%=      5-min Rain = 0
KSC1 070904Z 01005KT 04/01 A303 RMK A01 T00370007  RH  081%=      5-min Rain = 0
KSC1 070905Z 00006KT 04/01 A303 RMK A01 T00380007  RH  081%=      5-min Rain = 0
KSC1 070906Z 00006KT 04/01 A303 RMK A01 T00380008  RH  081%=      5-min Rain = 0
KSC1 070907Z 00006KT 04/01 A303 RMK A01 T00380008  RH  081%=      5-min Rain = 0
KSC1 070908Z 00006KT 04/01 A303 RMK A01 T00380008  RH  081%=      5-min Rain = 0
KSC1 070909Z 00006KT 04/01 A303 RMK A01 T00380008  RH  081%=      5-min Rain = 0
KSC1 070910Z 01006KT 04/01 A303 RMK A01 T00380007  RH  081%=      5-min Rain = 0
KSC1 070911Z 00006KT 04/01 A303 RMK A01 T00380008  RH  081%=      5-min Rain = 0
KSC1 070912Z 01005KT 04/01 A303 RMK A01 T00380008  RH  081%=      5-min Rain = 0
KSC1 070913Z 01005KT 04/01 A303 RMK A01 T00380008  RH  081%=      5-min Rain = 0
KSC1 070914Z 01005KT 04/01 A303 RMK A01 T00380007  RH  081%=      5-min Rain = 0
KSC1 070915Z 00005KT 04/01 A303 RMK A01 T00380008  RH  081%=      5-min Rain = 0
KSC1 070916Z 00006KT 04/01 A303 RMK A01 T00380007  RH  080%=      5-min Rain = 0
KSC1 070917Z 35006KT 04/01 A303 RMK A01 T00380007  RH  080%=      5-min Rain = 0
KSC1 070918Z 00006KT 04/01 A303 RMK A01 T00380007  RH  081%=      5-min Rain = 0
KSC1 070919Z 36006KT 04/01 A303 RMK A01 T00380008  RH  081%=      5-min Rain = 0
KSC1 070920Z 00005KT 04/01 A303 RMK A01 T00380008  RH  081%=      5-min Rain = 0
KSC1 070921Z 35005KT 04/01 A303 RMK A01 T00380008  RH  081%=      5-min Rain = 0
KSC1 070922Z 35005KT 04/01 A303 RMK A01 T00380008  RH  081%=      5-min Rain = 0
KSC1 070923Z 35005KT 04/01 A303 RMK A01 T00380008  RH  081%=      5-min Rain = 0
KSC1 070924Z 35005KT 04/01 A303 RMK A01 T00380008  RH  081%=      5-min Rain = 0
KSC1 070925Z 34006KT 04/01 A303 RMK A01 T00380007  RH  081%=      5-min Rain = 0
KSC1 070926Z 36006KT 04/01 A303 RMK A01 T00380007  RH  080%=      5-min Rain = 0
KSC1 070927Z 35006KT 04/01 A303 RMK A01 T00380007  RH  080%=      5-min Rain = 0
KSC1 070928Z 35006KT 04/01 A303 RMK A01 T00380006  RH  080%=      5-min Rain = 0
KSC1 070929Z 35005KT 04/01 A303 RMK A01 T00380006  RH  080%=      5-min Rain = 0
KSC1 070930Z 35005KT 04/01 A303 RMK A01 T00380006  RH  080%=      5-min Rain = 0
KSC1 070931Z 35006KT 04/01 A303 RMK A01 T00380006  RH  080%=      5-min Rain = 0
KSC1 070932Z 34007KT 04/01 A303 RMK A01 T00380006  RH  080%=      5-min Rain = 0
KSC1 070933Z 34007KT 04/01 A303 RMK A01 T00380006  RH  080%=      5-min Rain = 0
KSC1 070934Z 34007KT 04/01 A303 RMK A01 T00380006  RH  080%=      5-min Rain = 0
KSC1 070935Z 34006KT 04/01 A303 RMK A01 T00380006  RH  080%=      5-min Rain = 0
KSC1 070936Z 36007KT 04/01 A303 RMK A01 T00380006  RH  080%=      5-min Rain = 0
KSC1 070937Z 35007KT 04/01 A303 RMK A01 T00380006  RH  080%=      5-min Rain = 0
KSC1 070938Z 36007KT 04/01 A303 RMK A01 T00370006  RH  080%=      5-min Rain = 0
KSC1 070939Z 36008KT 04/01 A303 RMK A01 T00370005  RH  079%=      5-min Rain = 0
KSC1 070940Z 36007KT 04/01 A303 RMK A01 T00370005  RH  080%=      5-min Rain = 0
KSC1 070941Z 36007KT 04/01 A303 RMK A01 T00370005  RH  080%=      5-min Rain = 0
KSC1 070942Z 36006KT 04/01 A303 RMK A01 T00370005  RH  080%=      5-min Rain = 0
KSC1 070943Z 01006KT 04/01 A3029 RMK A01 T00370005  RH  080%=      5-min Rain = 0
KSC1 070944Z 36006KT 04/01 A3029 RMK A01 T00370005  RH  080%=      5-min Rain = 0
KSC1 070945Z 35006KT 04/01 A3029 RMK A01 T00370005  RH  079%=      5-min Rain = 0
KSC1 070946Z 34007KT 04/01 A3029 RMK A01 T00370005  RH  079%=      5-min Rain = 0
KSC1 070947Z 33006KT 04/00 A3029 RMK A01 T00370004  RH  079%=      5-min Rain = 0
KSC1 070948Z 33007KT 04/01 A3029 RMK A01 T00370005  RH  079%=      5-min Rain = 0
KSC1 070949Z 33008KT 04/01 A3029 RMK A01 T00370005  RH  079%=      5-min Rain = 0
KSC1 070950Z 34007KT 04/01 A3029 RMK A01 T00370005  RH  079%=      5-min Rain = 0
KSC1 070951Z 34006KT 04/01 A3029 RMK A01 T00370005  RH  080%=      5-min Rain = 0
KSC1 070952Z 34007KT 04/01 A3029 RMK A01 T00370005  RH  080%=      5-min Rain = 0
KSC1 070953Z 33007KT 04/01 A3029 RMK A01 T00370005  RH  080%=      5-min Rain = 0
KSC1 070954Z 35008KT 04/01 A3029 RMK A01 T00360005  RH  080%=      5-min Rain = 0
KSC1 070955Z 34007KT 04/01 A3029 RMK A01 T00370005  RH  080%=      5-min Rain = 0
KSC1 070956Z 34007KT 04/01 A3029 RMK A01 T00360005  RH  080%=      5-min Rain = 0
KSC1 070957Z 34009KT 04/01 A3029 RMK A01 T00360005  RH  080%=      5-min Rain = 0
KSC1 070958Z 33008KT 04/01 A3029 RMK A01 T00360005  RH  080%=      5-min Rain = 0
KSC1 070959Z 33009KT 04/01 A3029 RMK A01 T00360005  RH  080%=      5-min Rain = 0
KSC1 071000Z 34009KT 04/01 A3029 RMK A01 T00360005  RH  080%=      5-min Rain = 0
KSC1 071001Z 34007KT 04/01 A3029 RMK A01 T00360005  RH  080%=      5-min Rain = 0
KSC1 071002Z 34009KT 04/01 A3029 RMK A01 T00350005  RH  080%=      5-min Rain = 0
KSC1 071003Z 33007KT 04/01 A3029 RMK A01 T00360005  RH  081%=      5-min Rain = 0
KSC1 071004Z 34007KT 04/01 A3029 RMK A01 T00350006  RH  081%=      5-min Rain = 0
KSC1 071005Z 33009KT 04/01 A3029 RMK A01 T00350006  RH  081%=      5-min Rain = 0
KSC1 071006Z 34009KT 04/01 A3029 RMK A01 T00350006  RH  081%=      5-min Rain = 0
KSC1 071007Z 33009KT 04/01 A3029 RMK A01 T00350005  RH  081%=      5-min Rain = 0
KSC1 071008Z 33007KT 04/01 A3029 RMK A01 T00350006  RH  081%=      5-min Rain = 0
KSC1 071009Z 33009KT 03/01 A3029 RMK A01 T00340006  RH  082%=      5-min Rain = 0
KSC1 071010Z 34009KT 03/01 A3029 RMK A01 T00340006  RH  082%=      5-min Rain = 0
KSC1 071011Z 34007KT 03/01 A3029 RMK A01 T00340006  RH  082%=      5-min Rain = 0
KSC1 071012Z 34008KT 03/01 A3029 RMK A01 T00340006  RH  082%=      5-min Rain = 0
KSC1 071013Z 35008KT 03/01 A3029 RMK A01 T00340006  RH  082%=      5-min Rain = 0
KSC1 071014Z 34007KT 03/01 A3029 RMK A01 T00340006  RH  082%=      5-min Rain = 0
KSC1 071015Z 34006KT 03/01 A3029 RMK A01 T00340007  RH  082%=      5-min Rain = 0
KSC1 071016Z 35008KT 03/01 A3029 RMK A01 T00340006  RH  082%=      5-min Rain = 0
KSC1 071017Z 35008KT 03/01 A3029 RMK A01 T00340006  RH  082%=      5-min Rain = 0
KSC1 071018Z 35006KT 03/01 A3029 RMK A01 T00340006  RH  082%=      5-min Rain = 0
KSC1 071019Z 35007KT 03/01 A3029 RMK A01 T00340007  RH  082%=      5-min Rain = 0
KSC1 071020Z 35007KT 03/01 A3029 RMK A01 T00340007  RH  082%=      5-min Rain = 0
KSC1 071021Z 34006KT 03/01 A3029 RMK A01 T00340007  RH  082%=      5-min Rain = 0
KSC1 071022Z 34007KT 03/01 A3029 RMK A01 T00340007  RH  083%=      5-min Rain = 0
KSC1 071023Z 36006KT 03/01 A3029 RMK A01 T00330006  RH  082%=      5-min Rain = 0
KSC1 071024Z 35008KT 03/01 A3029 RMK A01 T00330006  RH  083%=      5-min Rain = 0
KSC1 071025Z 36009KT 03/01 A3029 RMK A01 T00330006  RH  083%=      5-min Rain = 0
KSC1 071026Z 36008KT 03/01 A3029 RMK A01 T00330006  RH  082%=      5-min Rain = 0
KSC1 071027Z 35007KT 03/01 A303 RMK A01 T00320005  RH  083%=      5-min Rain = 0
KSC1 071028Z 36009KT 03/01 A303 RMK A01 T00320005  RH  083%=      5-min Rain = 0
KSC1 071029Z 36010KT 03/01 A3029 RMK A01 T00320005  RH  082%=      5-min Rain = 0
KSC1 071030Z 00007KT 03/01 A3029 RMK A01 T00320005  RH  082%=      5-min Rain = 0
KSC1 071031Z 36007KT 03/01 A303 RMK A01 T00320005  RH  082%=      5-min Rain = 0
KSC1 071032Z 36007KT 03/01 A303 RMK A01 T00320005  RH  082%=      5-min Rain = 0
KSC1 071033Z 00007KT 03/01 A303 RMK A01 T00320005  RH  083%=      5-min Rain = 0
KSC1 071034Z 36008KT 03/01 A303 RMK A01 T00320005  RH  082%=      5-min Rain = 0
KSC1 071035Z 36005KT 03/01 A303 RMK A01 T00320005  RH  082%=      5-min Rain = 0
KSC1 071036Z 35004KT 03/01 A303 RMK A01 T00320005  RH  083%=      5-min Rain = 0
KSC1 071037Z 35005KT 03/01 A303 RMK A01 T00320006  RH  083%=      5-min Rain = 0
KSC1 071038Z 35006KT 03/01 A303 RMK A01 T00320006  RH  083%=      5-min Rain = 0
KSC1 071039Z 35006KT 03/01 A303 RMK A01 T00320006  RH  083%=      5-min Rain = 0
KSC1 071040Z 36006KT 03/01 A303 RMK A01 T00320006  RH  083%=      5-min Rain = 0
KSC1 071041Z 34008KT 03/01 A303 RMK A01 T00320005  RH  083%=      5-min Rain = 0
KSC1 071042Z 35008KT 03/01 A303 RMK A01 T00320005  RH  082%=      5-min Rain = 0
KSC1 071043Z 35007KT 03/01 A303 RMK A01 T00320006  RH  083%=      5-min Rain = 0
KSC1 071044Z 35007KT 03/01 A303 RMK A01 T00320005  RH  082%=      5-min Rain = 0
KSC1 071045Z 00006KT 03/01 A303 RMK A01 T00320005  RH  082%=      5-min Rain = 0
KSC1 071046Z 35006KT 03/01 A303 RMK A01 T00320005  RH  083%=      5-min Rain = 0
KSC1 071047Z 35008KT 03/01 A303 RMK A01 T00320006  RH  083%=      5-min Rain = 0
KSC1 071048Z 34006KT 03/00 A303 RMK A01 T00320004  RH  082%=      5-min Rain = 0
KSC1 071049Z 36006KT 03/01 A303 RMK A01 T00320005  RH  082%=      5-min Rain = 0
KSC1 071050Z 34006KT 03/01 A303 RMK A01 T00320005  RH  082%=      5-min Rain = 0
KSC1 071051Z 34007KT 03/00 A303 RMK A01 T00320004  RH  082%=      5-min Rain = 0
KSC1 071052Z 35006KT 03/01 A303 RMK A01 T00320005  RH  082%=      5-min Rain = 0
KSC1 071053Z 35006KT 03/00 A303 RMK A01 T00320004  RH  082%=      5-min Rain = 0
KSC1 071054Z 35007KT 03/00 A303 RMK A01 T00320004  RH  082%=      5-min Rain = 0
KSC1 071055Z 35007KT 03/00 A303 RMK A01 T00320004  RH  082%=      5-min Rain = 0
KSC1 071056Z 36007KT 03/00 A303 RMK A01 T00320004  RH  082%=      5-min Rain = 0
KSC1 071057Z 00006KT 03/00 A303 RMK A01 T00320004  RH  082%=      5-min Rain = 0
KSC1 071058Z 36005KT 03/00 A303 RMK A01 T00320004  RH  082%=      5-min Rain = 0
KSC1 071059Z 35005KT 03/00 A303 RMK A01 T00320004  RH  082%=      5-min Rain = 0
KSC1 071100Z 34006KT 03/00 A303 RMK A01 T00320004  RH  082%=      5-min Rain = 0
KSC1 071101Z 34004KT 03/00 A303 RMK A01 T00320004  RH  082%=      5-min Rain = 0
KSC1 071102Z 34005KT 03/00 A303 RMK A01 T00320004  RH  082%=      5-min Rain = 0
KSC1 071103Z 34005KT 03/00 A303 RMK A01 T00320004  RH  082%=      5-min Rain = 0
KSC1 071104Z 34006KT 03/00 A303 RMK A01 T00320004  RH  082%=      5-min Rain = 0
KSC1 071105Z 35005KT 03/00 A303 RMK A01 T00320004  RH  082%=      5-min Rain = 0
KSC1 071106Z 34005KT 03/00 A303 RMK A01 T00320004  RH  082%=      5-min Rain = 0
KSC1 071107Z 34006KT 03/00 A303 RMK A01 T00320004  RH  082%=      5-min Rain = 0
KSC1 071108Z 34005KT 03/01 A303 RMK A01 T00320005  RH  082%=      5-min Rain = 0
KSC1 071109Z 34006KT 03/01 A303 RMK A01 T00310005  RH  083%=      5-min Rain = 0
KSC1 071110Z 34006KT 03/01 A303 RMK A01 T00310006  RH  083%=      5-min Rain = 0
KSC1 071111Z 34006KT 03/01 A303 RMK A01 T00310005  RH  083%=      5-min Rain = 0
KSC1 071112Z 34005KT 03/01 A303 RMK A01 T00320005  RH  083%=      5-min Rain = 0
KSC1 071113Z 34004KT 03/01 A303 RMK A01 T00310006  RH  083%=      5-min Rain = 0
KSC1 071114Z 33003KT 03/01 A303 RMK A01 T00310006  RH  083%=      5-min Rain = 0
KSC1 071115Z 33006KT 03/01 A303 RMK A01 T00310005  RH  083%=      5-min Rain = 0
KSC1 071116Z 33006KT 03/01 A303 RMK A01 T00310005  RH  083%=      5-min Rain = 0
KSC1 071117Z 34006KT 03/00 A303 RMK A01 T00310004  RH  082%=      5-min Rain = 0
KSC1 071118Z 33006KT 03/00 A303 RMK A01 T00310004  RH  082%=      5-min Rain = 0
KSC1 071119Z 33007KT 03/01 A303 RMK A01 T00310005  RH  083%=      5-min Rain = 0
KSC1 071120Z 34007KT 03/01 A303 RMK A01 T00310005  RH  083%=      5-min Rain = 0
KSC1 071121Z 35005KT 03/01 A303 RMK A01 T00300006  RH  084%=      5-min Rain = 0
KSC1 071122Z 35006KT 03/01 A303 RMK A01 T00300008  RH  085%=      5-min Rain = 0
KSC1 071123Z 34005KT 03/01 A303 RMK A01 T00300008  RH  085%=      5-min Rain = 0
KSC1 071124Z 35005KT 03/01 A303 RMK A01 T00300008  RH  086%=      5-min Rain = 0
KSC1 071125Z 35006KT 03/01 A303 RMK A01 T00290008  RH  086%=      5-min Rain = 0
KSC1 071126Z 35006KT 03/01 A303 RMK A01 T00290008  RH  086%=      5-min Rain = 0
KSC1 071127Z 36006KT 03/01 A303 RMK A01 T00290007  RH  086%=      5-min Rain = 0
KSC1 071128Z 00006KT 03/01 A303 RMK A01 T00280007  RH  086%=      5-min Rain = 0
KSC1 071129Z 01008KT 03/01 A3029 RMK A01 T00280008  RH  087%=      5-min Rain = 0
KSC1 071130Z 01009KT 03/01 A3028 RMK A01 T00280009  RH  087%=      5-min Rain = 0
KSC1 071131Z 01008KT 03/01 A3028 RMK A01 T00280010  RH  088%=      5-min Rain = 0
KSC1 071132Z 01008KT 03/01 A3028 RMK A01 T00270011  RH  089%=      5-min Rain = 0
KSC1 071133Z 01009KT 03/01 A3028 RMK A01 T00270011  RH  089%=      5-min Rain = 0
KSC1 071134Z 02008KT 03/01 A3028 RMK A01 T00270011  RH  089%=      5-min Rain = 0
KSC1 071135Z 02007KT 03/01 A3028 RMK A01 T00270011  RH  089%=      5-min Rain = 0.01
KSC1 071136Z 01007KT 03/01 A3027 RMK A01 T00260011  RH  090%=      5-min Rain = 0
KSC1 071137Z 03008KT 03/01 A3027 RMK A01 T00260012  RH  091%=      5-min Rain = 0
KSC1 071138Z 03009KT 03/01 A3027 RMK A01 T00260014  RH  091%=      5-min Rain = 0
KSC1 071139Z 03008KT 03/01 A3027 RMK A01 T00260014  RH  091%=      5-min Rain = 0
KSC1 071140Z 03008KT 03/01 A3027 RMK A01 T00260013  RH  092%=      5-min Rain = 0
KSC1 071141Z 04007G12KT 03/01 A3027 RMK A01 T00250013  RH  092%=      5-min Rain = 0
KSC1 071142Z 04008KT 03/01 A3027 RMK A01 T00250012  RH  091%=      5-min Rain = 0
KSC1 071143Z 03006KT 03/01 A3028 RMK A01 T00250012  RH  091%=      5-min Rain = 0
KSC1 071144Z 02006KT 03/01 A3028 RMK A01 T00250011  RH  091%=      5-min Rain = 0
KSC1 071145Z 02008KT 03/01 A3028 RMK A01 T00250011  RH  091%=      5-min Rain = 0
KSC1 071146Z 02006KT 02/01 A3028 RMK A01 T00240010  RH  091%=      5-min Rain = 0
KSC1 071147Z 02006KT 02/01 A3028 RMK A01 T00240011  RH  091%=      5-min Rain = 0.01
KSC1 071148Z 01004KT 02/01 A3028 RMK A01 T00240011  RH  091%=      5-min Rain = 0
KSC1 071149Z 01003KT 02/01 A3028 RMK A01 T00240012  RH  092%=      5-min Rain = 0
KSC1 071150Z 02005KT 02/01 A3029 RMK A01 T00240013  RH  092%=      5-min Rain = 0
KSC1 071151Z 03005KT 02/01 A3028 RMK A01 T00240014  RH  093%=      5-min Rain = 0
KSC1 071152Z 02004KT 02/01 A3028 RMK A01 T00240014  RH  093%=      5-min Rain = 0.01
KSC1 071153Z 01004KT 02/02 A3028 RMK A01 T00240015  RH  093%=      5-min Rain = 0
KSC1 071154Z 01004KT 02/02 A3028 RMK A01 T00240015  RH  094%=      5-min Rain = 0
KSC1 071155Z 01004KT 02/02 A3028 RMK A01 T00240015  RH  094%=      5-min Rain = 0
KSC1 071156Z 00004KT 02/02 A3029 RMK A01 T00230015  RH  094%=      5-min Rain = 0.01
KSC1 071157Z 35003KT 02/02 A3029 RMK A01 T00240015  RH  094%=      5-min Rain = 0
KSC1 071158Z 34003KT 02/02 A3029 RMK A01 T00240015  RH  094%=      5-min Rain = 0
KSC1 071159Z 34005KT 02/02 A3029 RMK A01 T00240015  RH  094%=      5-min Rain = 0
KSC1 071200Z 35005KT 02/02 A3029 RMK A01 T00230015  RH  094%=      5-min Rain = 0
KSC1 071201Z 35005KT 02/02 A3029 RMK A01 T00240016  RH  095%=      5-min Rain = 0
KSC1 071202Z 35005KT 02/02 A3029 RMK A01 T00230015  RH  095%=      5-min Rain = 0
KSC1 071203Z 34004KT 02/02 A3029 RMK A01 T00230015  RH  094%=      5-min Rain = 0
KSC1 071204Z 33005KT 02/02 A3029 RMK A01 T00230015  RH  094%=      5-min Rain = 0.01
KSC1 071205Z 33005KT 02/01 A3029 RMK A01 T00230014  RH  094%=      5-min Rain = 0
KSC1 071206Z 32005KT 02/02 A3029 RMK A01 T00230015  RH  094%=      5-min Rain = 0
KSC1 071207Z 33004KT 02/02 A3029 RMK A01 T00230015  RH  095%=      5-min Rain = 0
KSC1 071208Z 34006KT 02/02 A3029 RMK A01 T00230015  RH  095%=      5-min Rain = 0
KSC1 071209Z 35006KT 02/02 A3029 RMK A01 T00230015  RH  095%=      5-min Rain = 0
KSC1 071210Z 01006KT 02/02 A3028 RMK A01 T00230015  RH  095%=      5-min Rain = 0
KSC1 071211Z 01006KT 02/02 A3028 RMK A01 T00230016  RH  095%=      5-min Rain = 0
KSC1 071212Z 02007KT 02/02 A3028 RMK A01 T00220015  RH  095%=      5-min Rain = 0
KSC1 071213Z 01005KT 02/02 A3028 RMK A01 T00220015  RH  095%=      5-min Rain = 0
KSC1 071214Z 34005KT 02/02 A3028 RMK A01 T00220016  RH  096%=      5-min Rain = 0
KSC1 071215Z 33005KT 02/02 A3029 RMK A01 T00220016  RH  096%=      5-min Rain = 0
KSC1 071216Z 34006KT 02/02 A3029 RMK A01 T00220016  RH  096%=      5-min Rain = 0
KSC1 071217Z 35006KT 02/02 A3029 RMK A01 T00220016  RH  096%=      5-min Rain = 0
KSC1 071218Z 00005KT 02/02 A3029 RMK A01 T00220015  RH  095%=      5-min Rain = 0
KSC1 071219Z 36004KT 02/02 A3029 RMK A01 T00220015  RH  096%=      5-min Rain = 0
KSC1 071220Z 35005KT 02/02 A3029 RMK A01 T00220016  RH  096%=      5-min Rain = 0
KSC1 071221Z 36005KT 02/02 A3029 RMK A01 T00220016  RH  096%=      5-min Rain = 0
KSC1 071222Z 36005KT 02/02 A3029 RMK A01 T00220016  RH  096%=      5-min Rain = 0
KSC1 071223Z 01005KT 02/02 A3029 RMK A01 T00220016  RH  096%=      5-min Rain = 0
KSC1 071224Z 01005KT 02/02 A3029 RMK A01 T00220016  RH  096%=      5-min Rain = 0
KSC1 071225Z 01005KT 02/02 A3029 RMK A01 T00220016  RH  096%=      5-min Rain = 0
KSC1 071226Z 00004KT 02/02 A3029 RMK A01 T00220016  RH  096%=      5-min Rain = 0
KSC1 071227Z 00005KT 02/02 A3029 RMK A01 T00220016  RH  096%=      5-min Rain = 0
KSC1 071228Z 01005KT 02/02 A3028 RMK A01 T00220016  RH  096%=      5-min Rain = 0
KSC1 071229Z 01004KT 02/02 A3028 RMK A01 T00220016  RH  096%=      5-min Rain = 0
KSC1 071230Z 01004KT 02/02 A3029 RMK A01 T00220016  RH  096%=      5-min Rain = 0
KSC1 071231Z 00005KT 02/02 A3029 RMK A01 T00210016  RH  096%=      5-min Rain = 0
KSC1 071232Z 36005KT 02/02 A3029 RMK A01 T00220016  RH  096%=      5-min Rain = 0
KSC1 071233Z 01005KT 02/02 A3029 RMK A01 T00220016  RH  096%=      5-min Rain = 0
KSC1 071234Z 00005KT 02/02 A3029 RMK A01 T00220015  RH  096%=      5-min Rain = 0.01
KSC1 071235Z 00004KT 02/02 A3029 RMK A01 T00220016  RH  096%=      5-min Rain = 0
KSC1 071236Z 00005KT 02/02 A3029 RMK A01 T00220016  RH  096%=      5-min Rain = 0
KSC1 071237Z 36005KT 02/02 A3029 RMK A01 T00220016  RH  096%=      5-min Rain = 0
KSC1 071238Z 36005KT 02/02 A3029 RMK A01 T00220016  RH  096%=      5-min Rain = 0
KSC1 071239Z 36006KT 02/02 A3029 RMK A01 T00220016  RH  096%=      5-min Rain = 0
KSC1 071240Z 34004KT 02/02 A3029 RMK A01 T00220015  RH  096%=      5-min Rain = 0
KSC1 071241Z 35005KT 02/02 A3029 RMK A01 T00220015  RH  096%=      5-min Rain = 0
KSC1 071242Z 35004KT 02/02 A3029 RMK A01 T00220016  RH  096%=      5-min Rain = 0
KSC1 071243Z 36006KT 02/02 A3029 RMK A01 T00220016  RH  096%=      5-min Rain = 0
KSC1 071244Z 36005KT 02/02 A3029 RMK A01 T00220016  RH  096%=      5-min Rain = 0
KSC1 071245Z 00006KT 02/02 A3029 RMK A01 T00220016  RH  096%=      5-min Rain = 0
KSC1 071246Z 01006KT 02/02 A3029 RMK A01 T00220015  RH  096%=      5-min Rain = 0
KSC1 071247Z 00005KT 02/02 A3029 RMK A01 T00220016  RH  096%=      5-min Rain = 0
KSC1 071248Z 35006KT 02/02 A3029 RMK A01 T00220016  RH  096%=      5-min Rain = 0
KSC1 071249Z 00005KT 02/02 A3029 RMK A01 T00220016  RH  096%=      5-min Rain = 0
KSC1 071250Z 36004KT 02/02 A3029 RMK A01 T00220016  RH  096%=      5-min Rain = 0
KSC1 071251Z 35003KT 02/02 A3029 RMK A01 T00220016  RH  096%=      5-min Rain = 0
KSC1 071252Z 35004KT 02/02 A3029 RMK A01 T00220016  RH  096%=      5-min Rain = 0
KSC1 071253Z 35004KT 02/02 A3029 RMK A01 T00220017  RH  096%=      5-min Rain = 0
KSC1 071254Z 35004KT 02/02 A303 RMK A01 T00220017  RH  097%=      5-min Rain = 0
KSC1 071255Z 34004KT 02/02 A303 RMK A01 T00220017  RH  097%=      5-min Rain = 0
KSC1 071256Z 35004KT 02/02 A303 RMK A01 T00220017  RH  096%=      5-min Rain = 0
KSC1 071257Z 34003KT 02/02 A303 RMK A01 T00220017  RH  096%=      5-min Rain = 0
KSC1 071258Z 35002KT 02/02 A303 RMK A01 T00220017  RH  097%=      5-min Rain = 0
KSC1 071259Z 34002KT 02/02 A303 RMK A01 T00220018  RH  097%=      5-min Rain = 0
KSC1 071300Z 34004KT 02/02 A303 RMK A01 T00230018  RH  097%=      5-min Rain = 0
KSC1 071301Z 34005KT 02/02 A303 RMK A01 T00220018  RH  097%=      5-min Rain = 0
KSC1 071302Z 34004KT 02/02 A303 RMK A01 T00230018  RH  097%=      5-min Rain = 0
KSC1 071303Z 34005KT 02/02 A303 RMK A01 T00230018  RH  097%=      5-min Rain = 0
KSC1 071304Z 35005KT 02/02 A303 RMK A01 T00230018  RH  097%=      5-min Rain = 0
KSC1 071305Z 34004KT 02/02 A303 RMK A01 T00220017  RH  096%=      5-min Rain = 0
KSC1 071306Z 34004KT 02/02 A303 RMK A01 T00220017  RH  096%=      5-min Rain = 0
KSC1 071307Z 35004KT 02/02 A303 RMK A01 T00220017  RH  096%=      5-min Rain = 0
KSC1 071308Z 34004KT 02/02 A303 RMK A01 T00220017  RH  096%=      5-min Rain = 0
KSC1 071309Z 34005KT 02/02 A303 RMK A01 T00220017  RH  097%=      5-min Rain = 0
KSC1 071310Z 34005KT 02/02 A303 RMK A01 T00220017  RH  096%=      5-min Rain = 0
KSC1 071311Z 35004KT 02/02 A303 RMK A01 T00220017  RH  096%=      5-min Rain = 0
KSC1 071312Z 34006KT 02/02 A303 RMK A01 T00220017  RH  096%=      5-min Rain = 0
KSC1 071313Z 35005KT 02/02 A303 RMK A01 T00220017  RH  096%=      5-min Rain = 0
KSC1 071314Z 34006KT 02/02 A303 RMK A01 T00220017  RH  096%=      5-min Rain = 0
KSC1 071315Z 34004KT 02/02 A303 RMK A01 T00230017  RH  096%=      5-min Rain = 0
KSC1 071316Z 35004KT 02/02 A303 RMK A01 T00220017  RH  096%=      5-min Rain = 0
KSC1 071317Z 34005KT 02/02 A303 RMK A01 T00230018  RH  097%=      5-min Rain = 0
KSC1 071318Z 34006KT 02/02 A303 RMK A01 T00230018  RH  097%=      5-min Rain = 0
KSC1 071319Z 34005KT 02/02 A303 RMK A01 T00220017  RH  097%=      5-min Rain = 0
KSC1 071320Z 35004KT 02/02 A303 RMK A01 T00230018  RH  096%=      5-min Rain = 0
KSC1 071321Z 35005KT 02/02 A303 RMK A01 T00230017  RH  096%=      5-min Rain = 0
KSC1 071322Z 35004KT 02/02 A303 RMK A01 T00230017  RH  096%=      5-min Rain = 0
KSC1 071323Z 35003KT 02/02 A303 RMK A01 T00230018  RH  096%=      5-min Rain = 0
KSC1 071324Z 36004KT 02/02 A303 RMK A01 T00230018  RH  097%=      5-min Rain = 0
KSC1 071325Z 35004KT 02/02 A303 RMK A01 T00230018  RH  097%=      5-min Rain = 0
KSC1 071326Z 35004KT 02/02 A303 RMK A01 T00230018  RH  097%=      5-min Rain = 0
KSC1 071327Z 35004KT 02/02 A303 RMK A01 T00230018  RH  097%=      5-min Rain = 0
KSC1 071328Z 00004KT 02/02 A303 RMK A01 T00230018  RH  097%=      5-min Rain = 0
KSC1 071329Z 01004KT 02/02 A303 RMK A01 T00230018  RH  097%=      5-min Rain = 0
KSC1 071330Z 01004KT 02/02 A303 RMK A01 T00220018  RH  097%=      5-min Rain = 0
KSC1 071331Z 02004KT 02/02 A3029 RMK A01 T00220018  RH  097%=      5-min Rain = 0
KSC1 071332Z 02004KT 02/02 A303 RMK A01 T00230019  RH  097%=      5-min Rain = 0
KSC1 071333Z 01004KT 02/02 A303 RMK A01 T00230019  RH  097%=      5-min Rain = 0
KSC1 071334Z 01004KT 02/02 A303 RMK A01 T00220019  RH  097%=      5-min Rain = 0
KSC1 071335Z 00003KT 02/02 A303 RMK A01 T00230019  RH  097%=      5-min Rain = 0
KSC1 071336Z 02003KT 02/02 A303 RMK A01 T00220019  RH  097%=      5-min Rain = 0
KSC1 071337Z 02004KT 02/02 A303 RMK A01 T00230019  RH  097%=      5-min Rain = 0
KSC1 071338Z 01003KT 02/02 A303 RMK A01 T00230019  RH  097%=      5-min Rain = 0
KSC1 071339Z 00004KT 02/02 A303 RMK A01 T00230019  RH  098%=      5-min Rain = 0
KSC1 071340Z 01005KT 02/02 A303 RMK A01 T00230019  RH  098%=      5-min Rain = 0
KSC1 071341Z 36004KT 02/02 A303 RMK A01 T00220019  RH  098%=      5-min Rain = 0
KSC1 071342Z 36005KT 02/02 A303 RMK A01 T00230019  RH  098%=      5-min Rain = 0
KSC1 071343Z 36005KT 02/02 A303 RMK A01 T00230019  RH  097%=      5-min Rain = 0
KSC1 071344Z 35004KT 02/02 A303 RMK A01 T00220018  RH  097%=      5-min Rain = 0
KSC1 071345Z 36004KT 02/02 A3031 RMK A01 T00230018  RH  097%=      5-min Rain = 0
KSC1 071346Z 00003KT 02/02 A3031 RMK A01 T00230018  RH  097%=      5-min Rain = 0
KSC1 071347Z 00004KT 02/02 A3031 RMK A01 T00230018  RH  097%=      5-min Rain = 0
KSC1 071348Z 01003KT 02/02 A3031 RMK A01 T00220018  RH  097%=      5-min Rain = 0
KSC1 071349Z 36004KT 02/02 A3031 RMK A01 T00230018  RH  097%=      5-min Rain = 0
KSC1 071350Z 36004KT 02/02 A3031 RMK A01 T00220018  RH  097%=      5-min Rain = 0
KSC1 071351Z 01004KT 02/02 A3031 RMK A01 T00230018  RH  097%=      5-min Rain = 0
KSC1 071352Z 01004KT 02/02 A3031 RMK A01 T00230018  RH  097%=      5-min Rain = 0
KSC1 071353Z 36004KT 02/02 A3031 RMK A01 T00230019  RH  097%=      5-min Rain = 0
KSC1 071354Z 01003KT 02/02 A3031 RMK A01 T00230019  RH  097%=      5-min Rain = 0
KSC1 071355Z 36004KT 02/02 A3031 RMK A01 T00230019  RH  097%=      5-min Rain = 0
KSC1 071356Z 36004KT 02/02 A3031 RMK A01 T00230019  RH  097%=      5-min Rain = 0
KSC1 071357Z 00004KT 02/02 A3031 RMK A01 T00230019  RH  097%=      5-min Rain = 0
KSC1 071358Z 01005KT 02/02 A3031 RMK A01 T00230018  RH  097%=      5-min Rain = 0
KSC1 071359Z 36004KT 02/02 A3031 RMK A01 T00230019  RH  097%=      5-min Rain = 0
KSC1 071400Z 00004KT 02/02 A3031 RMK A01 T00230019  RH  097%=      5-min Rain = 0
KSC1 071401Z 00004KT 02/02 A3031 RMK A01 T00230019  RH  097%=      5-min Rain = 0
KSC1 071402Z 00003KT 02/02 A3031 RMK A01 T00230019  RH  097%=      5-min Rain = 0
KSC1 071403Z 36005KT 02/02 A3031 RMK A01 T00230019  RH  097%=      5-min Rain = 0
KSC1 071404Z 01003KT 02/02 A3031 RMK A01 T00230019  RH  097%=      5-min Rain = 0
KSC1 071405Z 01004KT 02/02 A3031 RMK A01 T00230019  RH  097%=      5-min Rain = 0
KSC1 071406Z 01003KT 02/02 A3031 RMK A01 T00230019  RH  097%=      5-min Rain = 0
KSC1 071407Z 01003KT 02/02 A3031 RMK A01 T00230019  RH  097%=      5-min Rain = 0
KSC1 071408Z 00004KT 02/02 A3031 RMK A01 T00230019  RH  098%=      5-min Rain = 0
KSC1 071409Z 01004KT 02/02 A3031 RMK A01 T00230019  RH  098%=      5-min Rain = 0
KSC1 071410Z 01003KT 02/02 A3031 RMK A01 T00230020  RH  098%=      5-min Rain = 0.01
KSC1 071411Z 00002KT 02/02 A3031 RMK A01 T00230020  RH  098%=      5-min Rain = 0
KSC1 071412Z 36002KT 02/02 A3031 RMK A01 T00230020  RH  098%=      5-min Rain = 0
KSC1 071413Z 35003KT 02/02 A3031 RMK A01 T00230021  RH  098%=      5-min Rain = 0
KSC1 071414Z 35003KT 02/02 A3031 RMK A01 T00230021  RH  098%=      5-min Rain = 0
KSC1 071415Z 36003KT 02/02 A3031 RMK A01 T00240021  RH  098%=      5-min Rain = 0
KSC1 071416Z 00003KT 02/02 A3031 RMK A01 T00230021  RH  098%=      5-min Rain = 0
KSC1 071417Z 36003KT 02/02 A3031 RMK A01 T00230021  RH  098%=      5-min Rain = 0
KSC1 071418Z 36004KT 02/02 A3031 RMK A01 T00230021  RH  099%=      5-min Rain = 0
KSC1 071419Z 00005KT 02/02 A3031 RMK A01 T00230021  RH  099%=      5-min Rain = 0
KSC1 071420Z 00004KT 02/02 A3031 RMK A01 T00230021  RH  099%=      5-min Rain = 0
KSC1 071421Z 01004KT 02/02 A3031 RMK A01 T00230021  RH  099%=      5-min Rain = 0
KSC1 071422Z 01004KT 02/02 A3031 RMK A01 T00230021  RH  099%=      5-min Rain = 0
KSC1 071423Z 01004KT 02/02 A3031 RMK A01 T00230021  RH  099%=      5-min Rain = 0
KSC1 071424Z 01005KT 02/02 A3031 RMK A01 T00230021  RH  099%=      5-min Rain = 0
KSC1 071425Z 01004KT 02/02 A3031 RMK A01 T00230021  RH  099%=      5-min Rain = 0
KSC1 071426Z 35002KT 02/02 A3031 RMK A01 T00230021  RH  099%=      5-min Rain = 0
KSC1 071427Z 35003KT 02/02 A3031 RMK A01 T00230021  RH  099%=      5-min Rain = 0
KSC1 071428Z 35004KT 02/02 A3031 RMK A01 T00230021  RH  099%=      5-min Rain = 0
KSC1 071429Z 35004KT 02/02 A3031 RMK A01 T00230021  RH  099%=      5-min Rain = 0
KSC1 071430Z 35004KT 02/02 A3031 RMK A01 T00230022  RH  099%=      5-min Rain = 0
KSC1 071431Z 35005KT 02/02 A3031 RMK A01 T00230021  RH  099%=      5-min Rain = 0
KSC1 071432Z 35005KT 02/02 A3031 RMK A01 T00230022  RH  099%=      5-min Rain = 0
KSC1 071433Z 35004KT 02/02 A3031 RMK A01 T00230022  RH  099%=      5-min Rain = 0
KSC1 071434Z 34004KT 02/02 A3031 RMK A01 T00230021  RH  099%=      5-min Rain = 0
KSC1 071435Z 35004KT 02/02 A3031 RMK A01 T00230022  RH  099%=      5-min Rain = 0
KSC1 071436Z 35005KT 02/02 A3031 RMK A01 T00230022  RH  099%=      5-min Rain = 0
KSC1 071437Z 34004KT 02/02 A3031 RMK A01 T00230022  RH  099%=      5-min Rain = 0
KSC1 071438Z 35005KT 02/02 A3031 RMK A01 T00230022  RH  099%=      5-min Rain = 0
KSC1 071439Z 35004KT 02/02 A3031 RMK A01 T00230022  RH  099%=      5-min Rain = 0
KSC1 071440Z 35003KT 02/02 A3031 RMK A01 T00230022  RH  099%=      5-min Rain = 0
KSC1 071441Z 35004KT 02/02 A3031 RMK A01 T00230022  RH  099%=      5-min Rain = 0
KSC1 071442Z 35004KT 02/02 A3031 RMK A01 T00230022  RH  100%=      5-min Rain = 0.01
KSC1 071443Z 36004KT 02/02 A3032 RMK A01 T00230022  RH  100%=      5-min Rain = 0
KSC1 071444Z 01004KT 02/02 A3032 RMK A01 T00230022  RH  100%=      5-min Rain = 0
KSC1 071445Z 01005KT 02/02 A3032 RMK A01 T00230022  RH  100%=      5-min Rain = 0
KSC1 071446Z 01005KT 02/02 A3032 RMK A01 T00230022  RH  100%=      5-min Rain = 0
KSC1 071447Z 00004KT 02/02 A3032 RMK A01 T00230022  RH  100%=      5-min Rain = 0
KSC1 071448Z 01004KT 02/02 A3032 RMK A01 T00230022  RH  100%=      5-min Rain = 0
KSC1 071449Z 00003KT 02/02 A3032 RMK A01 T00230022  RH  100%=      5-min Rain = 0
KSC1 071450Z 00003KT 02/02 A3032 RMK A01 T00230023  RH  100%=      5-min Rain = 0
KSC1 071451Z 01003KT 02/02 A3032 RMK A01 T00230023  RH  100%=      5-min Rain = 0
KSC1 071452Z 02002KT 02/02 A3032 RMK A01 T00230023  RH  100%=      5-min Rain = 0
KSC1 071453Z 02004KT 02/02 A3032 RMK A01 T00230023  RH  100%=      5-min Rain = 0
KSC1 071454Z 01004KT 02/02 A3032 RMK A01 T00230023  RH  100%=      5-min Rain = 0
KSC1 071455Z 00004KT 02/02 A3032 RMK A01 T00230023  RH  100%=      5-min Rain = 0
KSC1 071456Z 01004KT 02/02 A3033 RMK A01 T00230023  RH  100%=      5-min Rain = 0
KSC1 071457Z 00004KT 02/02 A3033 RMK A01 T00230022  RH  100%=      5-min Rain = 0
KSC1 071458Z 36004KT 02/02 A3033 RMK A01 T00230023  RH  100%=      5-min Rain = 0
KSC1 071459Z 35003KT 02/02 A3033 RMK A01 T00230023  RH  100%=      5-min Rain = 0
KSC1 071500Z 36003KT 02/02 A3033 RMK A01 T00230022  RH  100%=      5-min Rain = 0
KSC1 071501Z 00004KT 02/02 A3033 RMK A01 T00230022  RH  099%=      5-min Rain = 0
KSC1 071502Z 36004KT 02/02 A3033 RMK A01 T00230022  RH  099%=      5-min Rain = 0
KSC1 071503Z 36004KT 02/02 A3033 RMK A01 T00230022  RH  099%=      5-min Rain = 0
KSC1 071504Z 35003KT 02/02 A3033 RMK A01 T00230022  RH  100%=      5-min Rain = 0
KSC1 071505Z 35004KT 02/02 A3033 RMK A01 T00230023  RH  100%=      5-min Rain = 0.01
KSC1 071506Z 35003KT 02/02 A3033 RMK A01 T00230022  RH  100%=      5-min Rain = 0
KSC1 071507Z 35004KT 02/02 A3033 RMK A01 T00230022  RH  100%=      5-min Rain = 0
KSC1 071508Z 35004KT 02/02 A3033 RMK A01 T00230022  RH  100%=      5-min Rain = 0
KSC1 071509Z 35004KT 02/02 A3033 RMK A01 T00230022  RH  100%=      5-min Rain = 0
KSC1 071510Z 35003KT 02/02 A3033 RMK A01 T00230022  RH  100%=      5-min Rain = 0
KSC1 071511Z 35003KT 02/02 A3033 RMK A01 T00230023  RH  100%=      5-min Rain = 0.01
KSC1 071512Z 36003KT 02/02 A3033 RMK A01 T00240023  RH  100%=      5-min Rain = 0
KSC1 071513Z 35003KT 02/02 A3033 RMK A01 T00230023  RH  100%=      5-min Rain = 0
KSC1 071514Z 35003KT 02/02 A3033 RMK A01 T00230023  RH  100%=      5-min Rain = 0
KSC1 071515Z 35003KT 02/02 A3033 RMK A01 T00240023  RH  100%=      5-min Rain = 0
KSC1 071516Z 35004KT 02/02 A3033 RMK A01 T00240024  RH  100%=      5-min Rain = 0
KSC1 071517Z 35003KT 02/02 A3033 RMK A01 T00240023  RH  100%=      5-min Rain = 0
KSC1 071518Z 35003KT 02/02 A3033 RMK A01 T00230023  RH  100%=      5-min Rain = 0
KSC1 071519Z 35003KT 02/02 A3033 RMK A01 T00240023  RH  100%=      5-min Rain = 0.01
KSC1 071520Z 36002KT 02/02 A3033 RMK A01 T00230023  RH  100%=      5-min Rain = 0
KSC1 071521Z 01003KT 02/02 A3033 RMK A01 T00240023  RH  100%=      5-min Rain = 0
KSC1 071522Z 01003KT 02/02 A3033 RMK A01 T00240024  RH  100%=      5-min Rain = 0
KSC1 071523Z 03002KT 02/02 A3033 RMK A01 T00240024  RH  100%=      5-min Rain = 0
KSC1 071524Z 02003KT 02/02 A3033 RMK A01 T00240024  RH  100%=      5-min Rain = 0.01
KSC1 071525Z 02003KT 03/02 A3033 RMK A01 T00250024  RH  100%=      5-min Rain = 0
KSC1 071526Z 02002KT 02/02 A3033 RMK A01 T00240024  RH  100%=      5-min Rain = 0
KSC1 071527Z 03002KT 02/02 A3033 RMK A01 T00240024  RH  100%=      5-min Rain = 0
KSC1 071528Z 04003KT 03/03 A3033 RMK A01 T00250025  RH  100%=      5-min Rain = 0
KSC1 071529Z 04002KT 03/03 A3033 RMK A01 T00250025  RH  100%=      5-min Rain = 0
KSC1 071530Z 04002KT 03/03 A3033 RMK A01 T00250025  RH  100%=      5-min Rain = 0
KSC1 071531Z 03002KT 03/03 A3033 RMK A01 T00250025  RH  100%=      5-min Rain = 0.01
KSC1 071532Z 03002KT 03/02 A3033 RMK A01 T00250024  RH  100%=      5-min Rain = 0
KSC1 071533Z 05003KT 02/02 A3033 RMK A01 T00240024  RH  100%=      5-min Rain = 0
KSC1 071534Z 06002KT 03/02 A3033 RMK A01 T00250024  RH  100%=      5-min Rain = 0
KSC1 071535Z 05003KT 03/03 A3033 RMK A01 T00250025  RH  100%=      5-min Rain = 0
KSC1 071536Z 05004KT 03/03 A3032 RMK A01 T00260026  RH  100%=      5-min Rain = 0.01
KSC1 071537Z 05003KT 03/03 A3032 RMK A01 T00250025  RH  100%=      5-min Rain = 0
KSC1 071538Z 05002KT 03/03 A3032 RMK A01 T00250025  RH  100%=      5-min Rain = 0
KSC1 071539Z 05003KT 03/03 A3032 RMK A01 T00260025  RH  100%=      5-min Rain = 0
KSC1 071540Z 06003KT 03/03 A3032 RMK A01 T00260026  RH  100%=      5-min Rain = 0
KSC1 071541Z 06003KT 03/03 A3032 RMK A01 T00260026  RH  100%=      5-min Rain = 0
KSC1 071542Z 05002KT 03/03 A3032 RMK A01 T00260026  RH  100%=      5-min Rain = 0
KSC1 071543Z 06003KT 03/03 A3032 RMK A01 T00270027  RH  100%=      5-min Rain = 0.01
KSC1 071544Z 06004KT 03/03 A3032 RMK A01 T00270027  RH  100%=      5-min Rain = 0
KSC1 071545Z 06003KT 03/03 A3032 RMK A01 T00270026  RH  100%=      5-min Rain = 0
KSC1 071546Z 06003KT 03/03 A3032 RMK A01 T00260026  RH  100%=      5-min Rain = 0
KSC1 071547Z 05004KT 03/03 A3032 RMK A01 T00260026  RH  100%=      5-min Rain = 0
KSC1 071548Z 04004KT 03/03 A3032 RMK A01 T00260025  RH  099%=      5-min Rain = 0
KSC1 071549Z 04003KT 03/03 A3032 RMK A01 T00260026  RH  100%=      5-min Rain = 0
KSC1 071550Z 05003KT 03/03 A3032 RMK A01 T00270026  RH  100%=      5-min Rain = 0
KSC1 071551Z 04003KT 03/03 A3032 RMK A01 T00260026  RH  100%=      5-min Rain = 0
KSC1 071552Z 04003KT 03/03 A3032 RMK A01 T00260026  RH  100%=      5-min Rain = 0
KSC1 071553Z 04004KT 03/03 A3032 RMK A01 T00260026  RH  100%=      5-min Rain = 0
KSC1 071554Z 04004KT 03/03 A3032 RMK A01 T00260026  RH  100%=      5-min Rain = 0
KSC1 071555Z 05004KT 03/03 A3032 RMK A01 T00260026  RH  100%=      5-min Rain = 0
KSC1 071556Z 05003KT 03/03 A3032 RMK A01 T00260026  RH  100%=      5-min Rain = 0
KSC1 071557Z 05004KT 03/03 A3032 RMK A01 T00260025  RH  100%=      5-min Rain = 0
KSC1 071558Z 05003KT 03/03 A3032 RMK A01 T00270026  RH  100%=      5-min Rain = 0.01
KSC1 071559Z 05003KT 03/03 A3032 RMK A01 T00270026  RH  099%=      5-min Rain = 0
KSC1 071600Z 02002KT 03/03 A3032 RMK A01 T00270026  RH  100%=      5-min Rain = 0
KSC1 071601Z 03002KT 03/03 A3032 RMK A01 T00270027  RH  100%=      5-min Rain = 0
KSC1 071602Z 02003KT 03/03 A3032 RMK A01 T00280027  RH  100%=      5-min Rain = 0
KSC1 071603Z 03003KT 03/03 A3032 RMK A01 T00270027  RH  100%=      5-min Rain = 0
KSC1 071604Z 04003KT 03/03 A3032 RMK A01 T00270026  RH  100%=      5-min Rain = 0
KSC1 071605Z 04003KT 03/03 A3032 RMK A01 T00270027  RH  100%=      5-min Rain = 0
KSC1 071606Z 02002KT 03/03 A3032 RMK A01 T00270026  RH  100%=      5-min Rain = 0
KSC1 071607Z 01002KT 03/03 A3032 RMK A01 T00270027  RH  100%=      5-min Rain = 0
KSC1 071608Z 02003KT 03/03 A3032 RMK A01 T00280027  RH  100%=      5-min Rain = 0
KSC1 071609Z 02002KT 03/03 A3033 RMK A01 T00280027  RH  100%=      5-min Rain = 0
KSC1 071610Z 03002KT 03/03 A3033 RMK A01 T00280027  RH  100%=      5-min Rain = 0.01
KSC1 071611Z 02003KT 03/03 A3033 RMK A01 T00280027  RH  100%=      5-min Rain = 0
KSC1 071612Z 00003KT 03/03 A3033 RMK A01 T00280027  RH  100%=      5-min Rain = 0
KSC1 071613Z 01003KT 03/03 A3033 RMK A01 T00280027  RH  100%=      5-min Rain = 0
KSC1 071614Z 01003KT 03/03 A3033 RMK A01 T00280028  RH  100%=      5-min Rain = 0
KSC1 071615Z 02003KT 03/03 A3033 RMK A01 T00280028  RH  100%=      5-min Rain = 0
KSC1 071616Z 00002KT 03/03 A3033 RMK A01 T00280028  RH  100%=      5-min Rain = 0
KSC1 071617Z 36002KT 03/03 A3033 RMK A01 T00280028  RH  100%=      5-min Rain = 0
KSC1 071618Z 36003KT 03/03 A3033 RMK A01 T00280028  RH  100%=      5-min Rain = 0
KSC1 071619Z 35003KT 03/03 A3033 RMK A01 T00290029  RH  100%=      5-min Rain = 0
KSC1 071620Z 36003KT 03/03 A3033 RMK A01 T00290029  RH  100%=      5-min Rain = 0.01
KSC1 071621Z 36003KT 03/03 A3033 RMK A01 T00290029  RH  100%=      5-min Rain = 0
KSC1 071622Z 36002KT 03/03 A3033 RMK A01 T00290029  RH  100%=      5-min Rain = 0
KSC1 071623Z 34002KT 03/03 A3033 RMK A01 T00290029  RH  100%=      5-min Rain = 0
KSC1 071624Z 36003KT 03/03 A3033 RMK A01 T00290029  RH  100%=      5-min Rain = 0
KSC1 071625Z 35003KT 03/03 A3033 RMK A01 T00300030  RH  100%=      5-min Rain = 0
KSC1 071626Z 35002KT 03/03 A3033 RMK A01 T00290029  RH  100%=      5-min Rain = 0
KSC1 071627Z 34003KT 03/03 A3032 RMK A01 T00300030  RH  100%=      5-min Rain = 0
KSC1 071628Z 35003KT 03/03 A3032 RMK A01 T00300030  RH  100%=      5-min Rain = 0
KSC1 071629Z 35004KT 03/03 A3032 RMK A01 T00300030  RH  100%=      5-min Rain = 0
KSC1 071630Z 34004KT 03/03 A3032 RMK A01 T00300030  RH  100%=      5-min Rain = 0
KSC1 071631Z 33003KT 03/03 A3032 RMK A01 T00300030  RH  100%=      5-min Rain = 0.01
KSC1 071632Z 35004KT 03/03 A3032 RMK A01 T00300030  RH  100%=      5-min Rain = 0
KSC1 071633Z 34004KT 03/03 A3032 RMK A01 T00310031  RH  100%=      5-min Rain = 0
KSC1 071634Z 34004KT 03/03 A3032 RMK A01 T00310031  RH  100%=      5-min Rain = 0
KSC1 071635Z 34003KT 03/03 A3032 RMK A01 T00310031  RH  100%=      5-min Rain = 0
KSC1 071636Z 35004KT 03/03 A3032 RMK A01 T00310031  RH  100%=      5-min Rain = 0
KSC1 071637Z 36005KT 03/03 A3032 RMK A01 T00310031  RH  100%=      5-min Rain = 0
KSC1 071638Z 36004KT 03/03 A3032 RMK A01 T00310031  RH  100%=      5-min Rain = 0
KSC1 071639Z 36006KT 03/03 A3032 RMK A01 T00310031  RH  100%=      5-min Rain = 0
KSC1 071640Z 36006KT 03/03 A3032 RMK A01 T00310031  RH  100%=      5-min Rain = 0
KSC1 071641Z 00006KT 03/03 A3031 RMK A01 T00310030  RH  100%=      5-min Rain = 0
KSC1 071642Z 36006KT 03/03 A3031 RMK A01 T00300030  RH  100%=      5-min Rain = 0
KSC1 071643Z 36005KT 03/03 A3031 RMK A01 T00300030  RH  100%=      5-min Rain = 0.01
KSC1 071644Z 36007KT 03/03 A3031 RMK A01 T00310030  RH  100%=      5-min Rain = 0
KSC1 071645Z 35005KT 03/03 A3031 RMK A01 T00300030  RH  100%=      5-min Rain = 0
KSC1 071646Z 35005KT 03/03 A3031 RMK A01 T00310030  RH  100%=      5-min Rain = 0
KSC1 071647Z 35006KT 03/03 A3031 RMK A01 T00310031  RH  100%=      5-min Rain = 0
KSC1 071648Z 34006KT 03/03 A3031 RMK A01 T00310031  RH  100%=      5-min Rain = 0
KSC1 071649Z 35004KT 03/03 A3031 RMK A01 T00310030  RH  100%=      5-min Rain = 0
KSC1 071650Z 36006KT 03/03 A3031 RMK A01 T00300030  RH  100%=      5-min Rain = 0
KSC1 071651Z 36006KT 03/03 A3031 RMK A01 T00310030  RH  100%=      5-min Rain = 0
KSC1 071652Z 35006KT 03/03 A3031 RMK A01 T00300030  RH  100%=      5-min Rain = 0
KSC1 071653Z 36006KT 03/03 A3031 RMK A01 T00310030  RH  100%=      5-min Rain = 0
KSC1 071654Z 00005KT 03/03 A3031 RMK A01 T00300030  RH  100%=      5-min Rain = 0
KSC1 071655Z 00007KT 03/03 A3031 RMK A01 T00300029  RH  099%=      5-min Rain = 0
KSC1 071656Z 00006KT 03/03 A3031 RMK A01 T00300030  RH  100%=      5-min Rain = 0
KSC1 071657Z 00004KT 03/03 A3031 RMK A01 T00310030  RH  100%=      5-min Rain = 0
KSC1 071658Z 35006KT 03/03 A3031 RMK A01 T00310031  RH  100%=      5-min Rain = 0
KSC1 071659Z 00005KT 03/03 A3031 RMK A01 T00310030  RH  099%=      5-min Rain = 0
KSC1 071700Z 00006KT 03/03 A3031 RMK A01 T00300029  RH  099%=      5-min Rain = 0
KSC1 071701Z 36007KT 03/03 A3031 RMK A01 T00300029  RH  099%=      5-min Rain = 0
KSC1 071702Z 00007KT 03/03 A3031 RMK A01 T00300028  RH  099%=      5-min Rain = 0
KSC1 071703Z 00008KT 03/03 A3031 RMK A01 T00300028  RH  099%=      5-min Rain = 0
KSC1 071704Z 36008KT 03/03 A3031 RMK A01 T00290027  RH  099%=      5-min Rain = 0
KSC1 071705Z 36006KT 03/03 A3031 RMK A01 T00290027  RH  098%=      5-min Rain = 0
KSC1 071706Z 35006KT 03/03 A3031 RMK A01 T00290027  RH  098%=      5-min Rain = 0
KSC1 071707Z 35006KT 03/03 A303 RMK A01 T00290027  RH  099%=      5-min Rain = 0.01
KSC1 071708Z 35006KT 03/03 A303 RMK A01 T00290027  RH  099%=      5-min Rain = 0
KSC1 071709Z 35006KT 03/03 A303 RMK A01 T00290027  RH  099%=      5-min Rain = 0
KSC1 071710Z 35009KT 03/03 A303 RMK A01 T00290027  RH  098%=      5-min Rain = 0
KSC1 071711Z 35009KT 03/03 A303 RMK A01 T00290026  RH  098%=      5-min Rain = 0
KSC1 071712Z 35008KT 03/03 A303 RMK A01 T00280025  RH  098%=      5-min Rain = 0
KSC1 071713Z 35006KT 03/03 A303 RMK A01 T00280025  RH  098%=      5-min Rain = 0
KSC1 071714Z 35007KT 03/03 A303 RMK A01 T00280025  RH  098%=      5-min Rain = 0
KSC1 071715Z 35007KT 03/03 A303 RMK A01 T00280025  RH  098%=      5-min Rain = 0
KSC1 071716Z 00007KT 03/03 A303 RMK A01 T00280025  RH  098%=      5-min Rain = 0
KSC1 071717Z 36007KT 03/02 A303 RMK A01 T00280024  RH  098%=      5-min Rain = 0
KSC1 071718Z 01007KT 03/03 A3029 RMK A01 T00280025  RH  098%=      5-min Rain = 0
KSC1 071719Z 00006KT 03/03 A3029 RMK A01 T00280026  RH  098%=      5-min Rain = 0
KSC1 071720Z 00006KT 03/03 A3029 RMK A01 T00280025  RH  098%=      5-min Rain = 0
KSC1 071721Z 35007KT 03/03 A3029 RMK A01 T00280026  RH  098%=      5-min Rain = 0
KSC1 071722Z 35007KT 03/03 A3029 RMK A01 T00290026  RH  098%=      5-min Rain = 0
KSC1 071723Z 00006KT 03/03 A3029 RMK A01 T00290026  RH  098%=      5-min Rain = 0
KSC1 071724Z 01006KT 03/03 A3029 RMK A01 T00290026  RH  098%=      5-min Rain = 0
KSC1 071725Z 00004KT 03/03 A3029 RMK A01 T00290026  RH  098%=      5-min Rain = 0
KSC1 071726Z 01007KT 03/03 A3028 RMK A01 T00290027  RH  099%=      5-min Rain = 0
KSC1 071727Z 01007KT 03/03 A3028 RMK A01 T00300028  RH  099%=      5-min Rain = 0
KSC1 071728Z 36007KT 03/03 A3028 RMK A01 T00290027  RH  098%=      5-min Rain = 0
KSC1 071729Z 00009KT 03/03 A3028 RMK A01 T00290026  RH  098%=      5-min Rain = 0
KSC1 071730Z 00007KT 03/03 A3028 RMK A01 T00290026  RH  098%=      5-min Rain = 0
KSC1 071731Z 36006KT 03/03 A3028 RMK A01 T00280026  RH  098%=      5-min Rain = 0
KSC1 071732Z 35005KT 03/03 A3028 RMK A01 T00290026  RH  098%=      5-min Rain = 0
KSC1 071733Z 35005KT 03/03 A3028 RMK A01 T00290027  RH  099%=      5-min Rain = 0
KSC1 071734Z 01006KT 03/03 A3028 RMK A01 T00290027  RH  099%=      5-min Rain = 0
KSC1 071735Z 35005KT 03/03 A3028 RMK A01 T00290028  RH  099%=      5-min Rain = 0
KSC1 071736Z 35005KT 03/03 A3028 RMK A01 T00300028  RH  099%=      5-min Rain = 0
KSC1 071737Z 35008KT 03/03 A3028 RMK A01 T00300028  RH  099%=      5-min Rain = 0
KSC1 071738Z 36008KT 03/03 A3028 RMK A01 T00290028  RH  099%=      5-min Rain = 0
KSC1 071739Z 35007KT 03/03 A3028 RMK A01 T00300028  RH  099%=      5-min Rain = 0
KSC1 071740Z 35007KT 03/03 A3028 RMK A01 T00290027  RH  099%=      5-min Rain = 0
KSC1 071741Z 35006KT 03/03 A3028 RMK A01 T00290027  RH  099%=      5-min Rain = 0
KSC1 071742Z 35009KT 03/03 A3028 RMK A01 T00290027  RH  099%=      5-min Rain = 0
KSC1 071743Z 35007KT 03/03 A3028 RMK A01 T00290026  RH  098%=      5-min Rain = 0
KSC1 071744Z 35007KT 03/03 A3028 RMK A01 T00290026  RH  098%=      5-min Rain = 0
KSC1 071745Z 35005KT 03/03 A3028 RMK A01 T00290026  RH  098%=      5-min Rain = 0
KSC1 071746Z 35006KT 03/03 A3028 RMK A01 T00290026  RH  098%=      5-min Rain = 0
KSC1 071747Z 36006KT 03/03 A3029 RMK A01 T00290027  RH  098%=      5-min Rain = 0
KSC1 071748Z 36006KT 03/03 A3029 RMK A01 T00290027  RH  098%=      5-min Rain = 0
KSC1 071749Z 36006KT 03/03 A3029 RMK A01 T00290026  RH  098%=      5-min Rain = 0
KSC1 071750Z 35005KT 03/03 A3029 RMK A01 T00290027  RH  098%=      5-min Rain = 0
KSC1 071751Z 00006KT 03/03 A3029 RMK A01 T00300028  RH  099%=      5-min Rain = 0
KSC1 071752Z 00007KT 03/03 A3029 RMK A01 T00300028  RH  099%=      5-min Rain = 0
KSC1 071753Z 36007KT 03/03 A3029 RMK A01 T00300027  RH  098%=      5-min Rain = 0
KSC1 071754Z 36006KT 03/03 A3029 RMK A01 T00290027  RH  098%=      5-min Rain = 0
KSC1 071755Z 35006KT 03/03 A3029 RMK A01 T00300027  RH  098%=      5-min Rain = 0
KSC1 071756Z 34006KT 03/03 A3029 RMK A01 T00300027  RH  098%=      5-min Rain = 0
KSC1 071757Z 34006KT 03/03 A3029 RMK A01 T00300027  RH  098%=      5-min Rain = 0
KSC1 071758Z 35007KT 03/03 A3029 RMK A01 T00300028  RH  098%=      5-min Rain = 0
KSC1 071759Z 34008KT 03/03 A3029 RMK A01 T00300028  RH  098%=      5-min Rain = 0
KSC1 071800Z 35006KT 03/03 A3029 RMK A01 T00300027  RH  098%=      5-min Rain = 0
KSC1 071801Z 35007KT 03/03 A3029 RMK A01 T00290027  RH  098%=      5-min Rain = 0
KSC1 071802Z 35006KT 03/03 A3029 RMK A01 T00300027  RH  098%=      5-min Rain = 0
KSC1 071803Z 34006KT 03/03 A3029 RMK A01 T00290027  RH  098%=      5-min Rain = 0
KSC1 071804Z 34007KT 03/03 A3029 RMK A01 T00290027  RH  098%=      5-min Rain = 0
KSC1 071805Z 35007KT 03/03 A3029 RMK A01 T00290027  RH  098%=      5-min Rain = 0
KSC1 071806Z 35007KT 03/03 A3029 RMK A01 T00290027  RH  098%=      5-min Rain = 0
KSC1 071807Z 35006KT 03/03 A3029 RMK A01 T00300027  RH  098%=      5-min Rain = 0
KSC1 071808Z 35008KT 03/03 A3029 RMK A01 T00300027  RH  098%=      5-min Rain = 0
KSC1 071809Z 35006KT 03/03 A3029 RMK A01 T00300027  RH  098%=      5-min Rain = 0
KSC1 071810Z 00005KT 03/03 A3029 RMK A01 T00290026  RH  098%=      5-min Rain = 0
KSC1 071811Z 35006G11KT 03/03 A3029 RMK A01 T00300027  RH  098%=      5-min Rain = 0
KSC1 071812Z 35007KT 03/03 A3029 RMK A01 T00300028  RH  099%=      5-min Rain = 0
KSC1 071813Z 34006KT 03/03 A3029 RMK A01 T00290027  RH  098%=      5-min Rain = 0
KSC1 071814Z 35006KT 03/03 A3028 RMK A01 T00300027  RH  098%=      5-min Rain = 0
KSC1 071815Z 00007KT 03/03 A3028 RMK A01 T00290027  RH  098%=      5-min Rain = 0
KSC1 071816Z 00007KT 03/03 A3028 RMK A01 T00300027  RH  098%=      5-min Rain = 0
KSC1 071817Z 00006KT 03/03 A3028 RMK A01 T00300027  RH  098%=      5-min Rain = 0
KSC1 071818Z 00007KT 03/03 A3028 RMK A01 T00300028  RH  099%=      5-min Rain = 0
KSC1 071819Z 35006KT 03/03 A3028 RMK A01 T00300028  RH  099%=      5-min Rain = 0
KSC1 071820Z 35005KT 03/03 A3028 RMK A01 T00300028  RH  099%=      5-min Rain = 0
KSC1 071821Z 35006KT 03/03 A3028 RMK A01 T00300028  RH  099%=      5-min Rain = 0
KSC1 071822Z 36008KT 03/03 A3028 RMK A01 T00300028  RH  099%=      5-min Rain = 0
KSC1 071823Z 36007KT 03/03 A3028 RMK A01 T00300028  RH  099%=      5-min Rain = 0
KSC1 071824Z 00007KT 03/03 A3028 RMK A01 T00300028  RH  099%=      5-min Rain = 0
KSC1 071825Z 35006KT 03/03 A3028 RMK A01 T00300028  RH  099%=      5-min Rain = 0
KSC1 071826Z 36007KT 03/03 A3028 RMK A01 T00300028  RH  099%=      5-min Rain = 0
KSC1 071827Z 01008KT 03/03 A3028 RMK A01 T00300028  RH  099%=      5-min Rain = 0
KSC1 071828Z 36008KT 03/03 A3028 RMK A01 T00300028  RH  099%=      5-min Rain = 0
KSC1 071829Z 00008KT 03/03 A3028 RMK A01 T00300028  RH  099%=      5-min Rain = 0
KSC1 071830Z 35007KT 03/03 A3028 RMK A01 T00300028  RH  099%=      5-min Rain = 0
KSC1 071831Z 35008KT 03/03 A3028 RMK A01 T00300028  RH  099%=      5-min Rain = 0
KSC1 071832Z 35007KT 03/03 A3028 RMK A01 T00300028  RH  099%=      5-min Rain = 0
KSC1 071833Z 34008KT 03/03 A3028 RMK A01 T00300028  RH  099%=      5-min Rain = 0
KSC1 071834Z 35009KT 03/03 A3027 RMK A01 T00300028  RH  099%=      5-min Rain = 0
KSC1 071835Z 36006G11KT 03/03 A3027 RMK A01 T00300028  RH  099%=      5-min Rain = 0
KSC1 071836Z 36009KT 03/03 A3027 RMK A01 T00300028  RH  099%=      5-min Rain = 0.01
KSC1 071837Z 36010KT 03/03 A3027 RMK A01 T00300028  RH  099%=      5-min Rain = 0
KSC1 071838Z 36009KT 03/03 A3027 RMK A01 T00290027  RH  099%=      5-min Rain = 0
KSC1 071839Z 00012KT 03/03 A3027 RMK A01 T00290027  RH  099%=      5-min Rain = 0
KSC1 071840Z 01011KT 03/03 A3026 RMK A01 T00290027  RH  099%=      5-min Rain = 0
KSC1 071841Z 02010KT 03/03 A3026 RMK A01 T00280026  RH  099%=      5-min Rain = 0
KSC1 071842Z 01009KT 03/03 A3026 RMK A01 T00280027  RH  099%=      5-min Rain = 0
KSC1 071843Z 01010KT 03/03 A3026 RMK A01 T00290027  RH  099%=      5-min Rain = 0
KSC1 071844Z 00008KT 03/03 A3026 RMK A01 T00290027  RH  099%=      5-min Rain = 0
KSC1 071845Z 01007G12KT 03/03 A3026 RMK A01 T00290027  RH  099%=      5-min Rain = 0
KSC1 071846Z 02010KT 03/03 A3026 RMK A01 T00290028  RH  099%=      5-min Rain = 0
KSC1 071847Z 02009KT 03/03 A3026 RMK A01 T00290028  RH  099%=      5-min Rain = 0
KSC1 071848Z 03010KT 03/03 A3025 RMK A01 T00290027  RH  099%=      5-min Rain = 0
KSC1 071849Z 02009KT 03/03 A3025 RMK A01 T00290027  RH  099%=      5-min Rain = 0
KSC1 071850Z 03009KT 03/03 A3025 RMK A01 T00290027  RH  099%=      5-min Rain = 0
KSC1 071851Z 02009KT 03/03 A3025 RMK A01 T00280027  RH  099%=      5-min Rain = 0
KSC1 071852Z 02007KT 03/03 A3025 RMK A01 T00290027  RH  099%=      5-min Rain = 0
KSC1 071853Z 03005KT 03/03 A3025 RMK A01 T00290027  RH  099%=      5-min Rain = 0
KSC1 071854Z 02005KT 03/03 A3025 RMK A01 T00290028  RH  099%=      5-min Rain = 0
KSC1 071855Z 02006KT 03/03 A3025 RMK A01 T00300029  RH  099%=      5-min Rain = 0
KSC1 071856Z 02005KT 03/03 A3025 RMK A01 T00300029  RH  099%=      5-min Rain = 0
KSC1 071857Z 02008KT 03/03 A3025 RMK A01 T00300029  RH  099%=      5-min Rain = 0
KSC1 071858Z 02009KT 03/03 A3025 RMK A01 T00300029  RH  099%=      5-min Rain = 0
KSC1 071859Z 01008KT 03/03 A3024 RMK A01 T00290029  RH  099%=      5-min Rain = 0
KSC1 071900Z 02010KT 03/03 A3024 RMK A01 T00290029  RH  099%=      5-min Rain = 0
KSC1 071901Z 01010KT 03/03 A3024 RMK A01 T00290028  RH  099%=      5-min Rain = 0
KSC1 071902Z 02010KT 03/03 A3024 RMK A01 T00280027  RH  099%=      5-min Rain = 0
KSC1 071903Z 02009KT 03/03 A3024 RMK A01 T00280027  RH  099%=      5-min Rain = 0
KSC1 071904Z 01008KT 03/03 A3024 RMK A01 T00290028  RH  099%=      5-min Rain = 0
KSC1 071905Z 00007KT 03/03 A3024 RMK A01 T00290028  RH  099%=      5-min Rain = 0
KSC1 071906Z 01009KT 03/03 A3024 RMK A01 T00290028  RH  100%=      5-min Rain = 0
KSC1 071907Z 01007KT 03/03 A3024 RMK A01 T00280028  RH  100%=      5-min Rain = 0
KSC1 071908Z 36009KT 03/03 A3024 RMK A01 T00290028  RH  100%=      5-min Rain = 0
KSC1 071909Z 01010KT 03/03 A3024 RMK A01 T00280028  RH  100%=      5-min Rain = 0
KSC1 071910Z 36011KT 03/03 A3024 RMK A01 T00280027  RH  100%=      5-min Rain = 0
KSC1 071911Z 00010KT 03/03 A3024 RMK A01 T00280027  RH  100%=      5-min Rain = 0
KSC1 071912Z 01011KT 03/03 A3024 RMK A01 T00270027  RH  100%=      5-min Rain = 0
KSC1 071913Z 00011KT 03/03 A3024 RMK A01 T00280027  RH  100%=      5-min Rain = 0
KSC1 071914Z 01011KT 03/03 A3024 RMK A01 T00270026  RH  100%=      5-min Rain = 0
KSC1 071915Z 01010KT 03/03 A3023 RMK A01 T00270026  RH  100%=      5-min Rain = 0
KSC1 071916Z 01011KT 03/03 A3023 RMK A01 T00270026  RH  099%=      5-min Rain = 0
KSC1 071917Z 01010KT 03/03 A3023 RMK A01 T00270026  RH  099%=      5-min Rain = 0
KSC1 071918Z 01009KT 03/03 A3023 RMK A01 T00270026  RH  099%=      5-min Rain = 0
KSC1 071919Z 01008KT 03/03 A3023 RMK A01 T00270026  RH  099%=      5-min Rain = 0
KSC1 071920Z 36009KT 03/03 A3023 RMK A01 T00270026  RH  099%=      5-min Rain = 0.01
KSC1 071921Z 01008KT 03/03 A3023 RMK A01 T00270026  RH  099%=      5-min Rain = 0
KSC1 071922Z 36007KT 03/03 A3023 RMK A01 T00280027  RH  099%=      5-min Rain = 0
KSC1 071923Z 00008KT 03/03 A3023 RMK A01 T00280027  RH  100%=      5-min Rain = 0
KSC1 071924Z 01009KT 03/03 A3023 RMK A01 T00270027  RH  100%=      5-min Rain = 0
KSC1 071925Z 00008KT 03/03 A3023 RMK A01 T00280027  RH  099%=      5-min Rain = 0
KSC1 071926Z 35008KT 03/03 A3023 RMK A01 T00280027  RH  100%=      5-min Rain = 0
KSC1 071927Z 35007KT 03/03 A3023 RMK A01 T00280028  RH  100%=      5-min Rain = 0
KSC1 071928Z 35008KT 03/03 A3023 RMK A01 T00280027  RH  100%=      5-min Rain = 0
KSC1 071929Z 35008KT 03/03 A3022 RMK A01 T00280027  RH  100%=      5-min Rain = 0
KSC1 071930Z 35008KT 03/03 A3022 RMK A01 T00280027  RH  100%=      5-min Rain = 0
KSC1 071931Z 35008KT 03/03 A3022 RMK A01 T00280027  RH  100%=      5-min Rain = 0
KSC1 071932Z 36010KT 03/03 A3022 RMK A01 T00280027  RH  100%=      5-min Rain = 0
KSC1 071933Z 01008KT 03/03 A3022 RMK A01 T00270027  RH  100%=      5-min Rain = 0
KSC1 071934Z 00007KT 03/03 A3022 RMK A01 T00270027  RH  100%=      5-min Rain = 0
KSC1 071935Z 35007KT 03/03 A3022 RMK A01 T00270027  RH  100%=      5-min Rain = 0
KSC1 071936Z 35007KT 03/03 A3022 RMK A01 T00270027  RH  100%=      5-min Rain = 0
KSC1 071937Z 36009KT 03/03 A3022 RMK A01 T00270027  RH  100%=      5-min Rain = 0
KSC1 071938Z 36008KT 03/03 A3022 RMK A01 T00270027  RH  100%=      5-min Rain = 0
KSC1 071939Z 36008KT 03/03 A3022 RMK A01 T00270027  RH  100%=      5-min Rain = 0
KSC1 071940Z 00007KT 03/03 A3022 RMK A01 T00270027  RH  100%=      5-min Rain = 0
KSC1 071941Z 36007KT 03/03 A3022 RMK A01 T00270027  RH  100%=      5-min Rain = 0
KSC1 071942Z 34007KT 03/03 A3022 RMK A01 T00270026  RH  100%=      5-min Rain = 0
KSC1 071943Z 35011KT 03/03 A3022 RMK A01 T00270027  RH  100%=      5-min Rain = 0
KSC1 071944Z 36008KT 03/03 A3022 RMK A01 T00270027  RH  100%=      5-min Rain = 0
KSC1 071945Z 35010KT 03/03 A3022 RMK A01 T00270026  RH  100%=      5-min Rain = 0
KSC1 071946Z 35010KT 03/03 A3022 RMK A01 T00270026  RH  100%=      5-min Rain = 0
KSC1 071947Z 35008KT 03/03 A3022 RMK A01 T00260026  RH  100%=      5-min Rain = 0
KSC1 071948Z 35008KT 03/03 A3022 RMK A01 T00260026  RH  100%=      5-min Rain = 0
KSC1 071949Z 36007KT 03/03 A3022 RMK A01 T00260026  RH  100%=      5-min Rain = 0
KSC1 071950Z 36008KT 03/03 A3022 RMK A01 T00260026  RH  100%=      5-min Rain = 0
KSC1 071951Z 35007KT 03/03 A3022 RMK A01 T00270027  RH  100%=      5-min Rain = 0
KSC1 071952Z 36007KT 03/03 A3022 RMK A01 T00270027  RH  100%=      5-min Rain = 0
KSC1 071953Z 36008KT 03/03 A3022 RMK A01 T00270027  RH  100%=      5-min Rain = 0
KSC1 071954Z 35009KT 03/03 A3022 RMK A01 T00270027  RH  100%=      5-min Rain = 0
KSC1 071955Z 35009KT 03/03 A3022 RMK A01 T00270026  RH  099%=      5-min Rain = 0
KSC1 071956Z 36009KT 03/03 A3022 RMK A01 T00270026  RH  099%=      5-min Rain = 0
KSC1 071957Z 00008KT 03/03 A3022 RMK A01 T00270025  RH  099%=      5-min Rain = 0
KSC1 071958Z 00008KT 03/03 A3022 RMK A01 T00270025  RH  098%=      5-min Rain = 0
KSC1 071959Z 01007KT 03/03 A3023 RMK A01 T00270025  RH  098%=      5-min Rain = 0
KSC1 072000Z 36007KT 03/03 A3023 RMK A01 T00270025  RH  098%=      5-min Rain = 0
KSC1 072001Z 35005KT 03/03 A3023 RMK A01 T00280025  RH  098%=      5-min Rain = 0
KSC1 072002Z 34007KT 03/03 A3023 RMK A01 T00280026  RH  098%=      5-min Rain = 0
KSC1 072003Z 33008KT 03/03 A3023 RMK A01 T00280026  RH  098%=      5-min Rain = 0
KSC1 072004Z 33007KT 03/02 A3023 RMK A01 T00270024  RH  098%=      5-min Rain = 0
KSC1 072005Z 33006KT 03/03 A3023 RMK A01 T00270025  RH  099%=      5-min Rain = 0
KSC1 072006Z 33005KT 03/03 A3023 RMK A01 T00270025  RH  099%=      5-min Rain = 0
KSC1 072007Z 34005KT 03/03 A3023 RMK A01 T00270026  RH  099%=      5-min Rain = 0.01
KSC1 072008Z 34005KT 03/03 A3023 RMK A01 T00270026  RH  099%=      5-min Rain = 0
KSC1 072009Z 34008KT 03/03 A3023 RMK A01 T00270026  RH  100%=      5-min Rain = 0
KSC1 072010Z 34008KT 03/03 A3023 RMK A01 T00270026  RH  100%=      5-min Rain = 0
KSC1 072011Z 35009KT 03/03 A3024 RMK A01 T00270026  RH  100%=      5-min Rain = 0
KSC1 072012Z 35009KT 03/03 A3024 RMK A01 T00260025  RH  099%=      5-min Rain = 0
KSC1 072013Z 36008KT 03/03 A3024 RMK A01 T00260025  RH  099%=      5-min Rain = 0
KSC1 072014Z 00008KT 03/03 A3024 RMK A01 T00260025  RH  099%=      5-min Rain = 0
KSC1 072015Z 01007KT 03/03 A3024 RMK A01 T00260025  RH  099%=      5-min Rain = 0
KSC1 072016Z 01007KT 03/03 A3024 RMK A01 T00260025  RH  099%=      5-min Rain = 0
KSC1 072017Z 01007KT 03/03 A3024 RMK A01 T00260025  RH  099%=      5-min Rain = 0
KSC1 072018Z 01008KT 03/03 A3024 RMK A01 T00260025  RH  099%=      5-min Rain = 0
KSC1 072019Z 00005KT 03/03 A3024 RMK A01 T00260025  RH  099%=      5-min Rain = 0
KSC1 072020Z 35006KT 03/03 A3024 RMK A01 T00260025  RH  099%=      5-min Rain = 0
KSC1 072021Z 35008KT 03/02 A3025 RMK A01 T00250024  RH  099%=      5-min Rain = 0.01
KSC1 072022Z 36005KT 03/02 A3025 RMK A01 T00250024  RH  099%=      5-min Rain = 0
KSC1 072023Z 36006KT 03/02 A3025 RMK A01 T00250024  RH  099%=      5-min Rain = 0
KSC1 072024Z 00004KT 03/02 A3025 RMK A01 T00250024  RH  099%=      5-min Rain = 0
KSC1 072025Z 00004KT 03/03 A3025 RMK A01 T00250025  RH  099%=      5-min Rain = 0
KSC1 072026Z 01004KT 03/03 A3025 RMK A01 T00250025  RH  100%=      5-min Rain = 0
KSC1 072027Z 35004KT 03/03 A3025 RMK A01 T00250025  RH  100%=      5-min Rain = 0
KSC1 072028Z 36006KT 03/03 A3025 RMK A01 T00260025  RH  100%=      5-min Rain = 0
KSC1 072029Z 00006KT 03/03 A3025 RMK A01 T00260026  RH  100%=      5-min Rain = 0
KSC1 072030Z 01004KT 03/03 A3025 RMK A01 T00260025  RH  100%=      5-min Rain = 0
KSC1 072031Z 01005KT 03/03 A3025 RMK A01 T00260025  RH  100%=      5-min Rain = 0.01
KSC1 072032Z 36004KT 03/03 A3025 RMK A01 T00260026  RH  100%=      5-min Rain = 0
KSC1 072033Z 00005KT 03/03 A3025 RMK A01 T00260026  RH  100%=      5-min Rain = 0
KSC1 072034Z 01005KT 03/03 A3025 RMK A01 T00260026  RH  100%=      5-min Rain = 0
KSC1 072035Z 02005KT 03/03 A3025 RMK A01 T00260026  RH  100%=      5-min Rain = 0
KSC1 072036Z 01005KT 03/03 A3025 RMK A01 T00260026  RH  100%=      5-min Rain = 0
KSC1 072037Z 02005KT 03/03 A3025 RMK A01 T00260026  RH  100%=      5-min Rain = 0
KSC1 072038Z 02006KT 03/03 A3025 RMK A01 T00260026  RH  100%=      5-min Rain = 0
KSC1 072039Z 02006KT 03/03 A3025 RMK A01 T00260026  RH  100%=      5-min Rain = 0
KSC1 072040Z 01007KT 03/03 A3025 RMK A01 T00260026  RH  100%=      5-min Rain = 0.01
KSC1 072041Z 01006KT 03/03 A3025 RMK A01 T00260025  RH  100%=      5-min Rain = 0
KSC1 072042Z 02007KT 03/03 A3025 RMK A01 T00260025  RH  099%=      5-min Rain = 0
KSC1 072043Z 01006KT 03/02 A3025 RMK A01 T00250024  RH  099%=      5-min Rain = 0
KSC1 072044Z 02007KT 03/02 A3025 RMK A01 T00250024  RH  099%=      5-min Rain = 0
KSC1 072045Z 01005KT 03/02 A3025 RMK A01 T00250024  RH  099%=      5-min Rain = 0
KSC1 072046Z 00005KT 03/02 A3025 RMK A01 T00250024  RH  099%=      5-min Rain = 0
KSC1 072047Z 00006KT 03/02 A3025 RMK A01 T00250024  RH  099%=      5-min Rain = 0.01
KSC1 072048Z 00005KT 03/02 A3025 RMK A01 T00250024  RH  099%=      5-min Rain = 0
KSC1 072049Z 00005KT 03/03 A3025 RMK A01 T00260025  RH  099%=      5-min Rain = 0
KSC1 072050Z 00006KT 03/03 A3025 RMK A01 T00260025  RH  099%=      5-min Rain = 0
KSC1 072051Z 36005KT 03/03 A3025 RMK A01 T00260025  RH  099%=      5-min Rain = 0
KSC1 072052Z 00006KT 03/03 A3024 RMK A01 T00260025  RH  099%=      5-min Rain = 0
KSC1 072053Z 00005KT 03/03 A3024 RMK A01 T00260025  RH  099%=      5-min Rain = 0
KSC1 072054Z 00006KT 03/03 A3024 RMK A01 T00260025  RH  099%=      5-min Rain = 0
KSC1 072055Z 01007KT 03/03 A3024 RMK A01 T00260025  RH  099%=      5-min Rain = 0.01
KSC1 072056Z 01006KT 03/03 A3024 RMK A01 T00260025  RH  099%=      5-min Rain = 0
KSC1 072057Z 01006KT 03/03 A3024 RMK A01 T00260025  RH  099%=      5-min Rain = 0
KSC1 072058Z 00004KT 03/03 A3024 RMK A01 T00260026  RH  099%=      5-min Rain = 0
KSC1 072059Z 01005KT 03/03 A3023 RMK A01 T00270026  RH  100%=      5-min Rain = 0
KSC1 072100Z 00007KT 03/03 A3023 RMK A01 T00270026  RH  100%=      5-min Rain = 0
KSC1 072101Z 01006KT 03/03 A3023 RMK A01 T00270026  RH  100%=      5-min Rain = 0
KSC1 072102Z 01005KT 03/03 A3023 RMK A01 T00260026  RH  099%=      5-min Rain = 0
KSC1 072103Z 01005KT 03/03 A3023 RMK A01 T00260026  RH  099%=      5-min Rain = 0
KSC1 072104Z 01006KT 03/03 A3023 RMK A01 T00260025  RH  099%=      5-min Rain = 0.01
KSC1 072105Z 01005KT 03/03 A3023 RMK A01 T00260025  RH  099%=      5-min Rain = 0
KSC1 072106Z 01006KT 03/03 A3023 RMK A01 T00260025  RH  099%=      5-min Rain = 0
KSC1 072107Z 01005KT 03/03 A3023 RMK A01 T00260025  RH  099%=      5-min Rain = 0
KSC1 072108Z 01006KT 03/03 A3023 RMK A01 T00260025  RH  099%=      5-min Rain = 0
KSC1 072109Z 01006KT 03/03 A3023 RMK A01 T00260025  RH  099%=      5-min Rain = 0
KSC1 072110Z 01006KT 03/03 A3023 RMK A01 T00260025  RH  099%=      5-min Rain = 0
KSC1 072111Z 00006KT 03/03 A3023 RMK A01 T00260025  RH  099%=      5-min Rain = 0
KSC1 072112Z 01006KT 03/03 A3023 RMK A01 T00260025  RH  099%=      5-min Rain = 0
KSC1 072113Z 00007KT 03/03 A3023 RMK A01 T00260025  RH  099%=      5-min Rain = 0
KSC1 072114Z 01006KT 03/03 A3023 RMK A01 T00260025  RH  099%=      5-min Rain = 0
KSC1 072115Z 00008KT 03/02 A3023 RMK A01 T00260024  RH  099%=      5-min Rain = 0
KSC1 072116Z 00007KT 03/02 A3023 RMK A01 T00260024  RH  099%=      5-min Rain = 0
KSC1 072117Z 00006KT 03/02 A3022 RMK A01 T00260024  RH  099%=      5-min Rain = 0
KSC1 072118Z 01006KT 03/02 A3022 RMK A01 T00260024  RH  099%=      5-min Rain = 0
KSC1 072119Z 00007KT 03/02 A3022 RMK A01 T00260024  RH  099%=      5-min Rain = 0
KSC1 072120Z 36008KT 03/02 A3022 RMK A01 T00260024  RH  099%=      5-min Rain = 0
KSC1 072121Z 00008KT 03/02 A3022 RMK A01 T00250023  RH  098%=      5-min Rain = 0
KSC1 072122Z 36006KT 03/02 A3022 RMK A01 T00250022  RH  098%=      5-min Rain = 0
KSC1 072123Z 02006KT 03/02 A3022 RMK A01 T00250023  RH  099%=      5-min Rain = 0
KSC1 072124Z 01006KT 03/02 A3022 RMK A01 T00250023  RH  099%=      5-min Rain = 0
KSC1 072125Z 00005KT 03/02 A3022 RMK A01 T00250024  RH  099%=      5-min Rain = 0
KSC1 072126Z 01006KT 03/02 A3022 RMK A01 T00250024  RH  099%=      5-min Rain = 0
KSC1 072127Z 00006KT 03/02 A3022 RMK A01 T00250024  RH  099%=      5-min Rain = 0
KSC1 072128Z 02006KT 03/02 A3022 RMK A01 T00250024  RH  099%=      5-min Rain = 0
KSC1 072129Z 02006KT 03/02 A3022 RMK A01 T00250024  RH  099%=      5-min Rain = 0
KSC1 072130Z 02007KT 03/02 A3022 RMK A01 T00250023  RH  099%=      5-min Rain = 0
KSC1 072131Z 02006KT 03/02 A3022 RMK A01 T00250023  RH  098%=      5-min Rain = 0
KSC1 072132Z 02005KT 03/02 A3022 RMK A01 T00250022  RH  098%=      5-min Rain = 0
KSC1 072133Z 01007KT 03/02 A3022 RMK A01 T00250022  RH  098%=      5-min Rain = 0
KSC1 072134Z 01006KT 03/02 A3022 RMK A01 T00250022  RH  098%=      5-min Rain = 0
KSC1 072135Z 02007KT 03/02 A3022 RMK A01 T00250022  RH  098%=      5-min Rain = 0
KSC1 072136Z 02008KT 03/02 A3022 RMK A01 T00250022  RH  098%=      5-min Rain = 0
KSC1 072137Z 01007KT 03/02 A3022 RMK A01 T00250021  RH  097%=      5-min Rain = 0
KSC1 072138Z 01007KT 03/02 A3022 RMK A01 T00250021  RH  097%=      5-min Rain = 0
KSC1 072139Z 01006KT 03/02 A3022 RMK A01 T00250021  RH  097%=      5-min Rain = 0
KSC1 072140Z 36006KT 03/02 A3022 RMK A01 T00250021  RH  097%=      5-min Rain = 0
KSC1 072141Z 00007KT 03/02 A3022 RMK A01 T00260021  RH  097%=      5-min Rain = 0
KSC1 072142Z 00007KT 03/02 A3022 RMK A01 T00250021  RH  097%=      5-min Rain = 0
KSC1 072143Z 02006KT 03/02 A3023 RMK A01 T00250021  RH  097%=      5-min Rain = 0
KSC1 072144Z 01007KT 03/02 A3022 RMK A01 T00250021  RH  097%=      5-min Rain = 0.01
KSC1 072145Z 02006KT 03/02 A3023 RMK A01 T00250021  RH  097%=      5-min Rain = 0
KSC1 072146Z 01005KT 03/02 A3022 RMK A01 T00250021  RH  097%=      5-min Rain = 0
KSC1 072147Z 01005KT 03/02 A3022 RMK A01 T00250021  RH  097%=      5-min Rain = 0
KSC1 072148Z 01005KT 03/02 A3022 RMK A01 T00260022  RH  097%=      5-min Rain = 0
KSC1 072149Z 00004KT 03/02 A3022 RMK A01 T00260022  RH  098%=      5-min Rain = 0
KSC1 072150Z 00006KT 03/02 A3022 RMK A01 T00260023  RH  098%=      5-min Rain = 0
KSC1 072151Z 00006KT 03/02 A3022 RMK A01 T00260023  RH  098%=      5-min Rain = 0
KSC1 072152Z 00005KT 03/02 A3022 RMK A01 T00260023  RH  098%=      5-min Rain = 0
KSC1 072153Z 36006KT 03/02 A3022 RMK A01 T00260023  RH  098%=      5-min Rain = 0
KSC1 072154Z 36006KT 03/02 A3022 RMK A01 T00260023  RH  098%=      5-min Rain = 0
KSC1 072155Z 00008KT 03/02 A3022 RMK A01 T00260023  RH  098%=      5-min Rain = 0
KSC1 072156Z 01006KT 03/02 A3022 RMK A01 T00260022  RH  098%=      5-min Rain = 0
KSC1 072157Z 01005KT 03/02 A3022 RMK A01 T00250022  RH  098%=      5-min Rain = 0
KSC1 072158Z 01004KT 03/02 A3022 RMK A01 T00250022  RH  098%=      5-min Rain = 0
KSC1 072159Z 36005KT 03/02 A3022 RMK A01 T00260023  RH  098%=      5-min Rain = 0
KSC1 072200Z 01005KT 03/02 A3022 RMK A01 T00260024  RH  098%=      5-min Rain = 0
KSC1 072201Z 00006KT 03/02 A3021 RMK A01 T00260023  RH  098%=      5-min Rain = 0
KSC1 072202Z 00006KT 03/02 A3021 RMK A01 T00250023  RH  098%=      5-min Rain = 0
KSC1 072203Z 00006KT 03/02 A3021 RMK A01 T00250023  RH  098%=      5-min Rain = 0
KSC1 072204Z 01007KT 03/02 A3021 RMK A01 T00250022  RH  098%=      5-min Rain = 0
KSC1 072205Z 01008KT 03/02 A3021 RMK A01 T00250022  RH  098%=      5-min Rain = 0
KSC1 072206Z 01008KT 02/02 A3021 RMK A01 T00240022  RH  098%=      5-min Rain = 0
KSC1 072207Z 01006KT 02/02 A3021 RMK A01 T00240022  RH  098%=      5-min Rain = 0
KSC1 072208Z 00009KT 02/02 A3021 RMK A01 T00240022  RH  099%=      5-min Rain = 0
KSC1 072209Z 01007KT 02/02 A3021 RMK A01 T00240022  RH  099%=      5-min Rain = 0
KSC1 072210Z 01007KT 03/02 A3021 RMK A01 T00250023  RH  099%=      5-min Rain = 0
KSC1 072211Z 01005KT 02/02 A3021 RMK A01 T00240023  RH  099%=      5-min Rain = 0
KSC1 072212Z 02005KT 02/02 A3021 RMK A01 T00240023  RH  099%=      5-min Rain = 0
KSC1 072213Z 01007KT 03/02 A3021 RMK A01 T00250023  RH  099%=      5-min Rain = 0
KSC1 072214Z 01007KT 03/02 A3021 RMK A01 T00250024  RH  099%=      5-min Rain = 0
KSC1 072215Z 01006KT 03/02 A3021 RMK A01 T00250024  RH  099%=      5-min Rain = 0
KSC1 072216Z 01007KT 03/02 A3021 RMK A01 T00250024  RH  099%=      5-min Rain = 0
KSC1 072217Z 01006KT 02/02 A3021 RMK A01 T00240024  RH  099%=      5-min Rain = 0
KSC1 072218Z 02005KT 02/02 A3021 RMK A01 T00240023  RH  099%=      5-min Rain = 0
KSC1 072219Z 02006KT 02/02 A3021 RMK A01 T00240023  RH  099%=      5-min Rain = 0
KSC1 072220Z 00004KT 02/02 A3022 RMK A01 T00240023  RH  099%=      5-min Rain = 0
KSC1 072221Z 01003KT 02/02 A3022 RMK A01 T00240023  RH  100%=      5-min Rain = 0
KSC1 072222Z 01004KT 03/02 A3022 RMK A01 T00250024  RH  100%=      5-min Rain = 0
KSC1 072223Z 36005KT 03/03 A3022 RMK A01 T00250025  RH  100%=      5-min Rain = 0
KSC1 072224Z 36007KT 03/03 A3022 RMK A01 T00250025  RH  100%=      5-min Rain = 0
KSC1 072225Z 00008KT 03/02 A3022 RMK A01 T00250024  RH  100%=      5-min Rain = 0
KSC1 072226Z 00007KT 02/02 A3022 RMK A01 T00240024  RH  100%=      5-min Rain = 0
KSC1 072227Z 01005KT 02/02 A3022 RMK A01 T00240023  RH  100%=      5-min Rain = 0
KSC1 072228Z 01005KT 02/02 A3022 RMK A01 T00240023  RH  100%=      5-min Rain = 0
KSC1 072229Z 01005KT 02/02 A3022 RMK A01 T00240024  RH  100%=      5-min Rain = 0
KSC1 072230Z 01005KT 02/02 A3022 RMK A01 T00240024  RH  100%=      5-min Rain = 0
KSC1 072231Z 00007KT 02/02 A3022 RMK A01 T00240024  RH  100%=      5-min Rain = 0
KSC1 072232Z 00010KT 02/02 A3022 RMK A01 T00240024  RH  100%=      5-min Rain = 0
KSC1 072233Z 00009KT 02/02 A3022 RMK A01 T00240023  RH  099%=      5-min Rain = 0
KSC1 072234Z 36007KT 02/02 A3022 RMK A01 T00230022  RH  099%=      5-min Rain = 0
KSC1 072235Z 00007KT 02/02 A3022 RMK A01 T00230022  RH  099%=      5-min Rain = 0
KSC1 072236Z 01009KT 02/02 A3022 RMK A01 T00230022  RH  099%=      5-min Rain = 0
KSC1 072237Z 36006KT 02/02 A3022 RMK A01 T00230022  RH  099%=      5-min Rain = 0
KSC1 072238Z 35006KT 02/02 A3022 RMK A01 T00230022  RH  099%=      5-min Rain = 0
KSC1 072239Z 35008KT 02/02 A3023 RMK A01 T00230022  RH  099%=      5-min Rain = 0
KSC1 072240Z 36008KT 02/02 A3023 RMK A01 T00230022  RH  099%=      5-min Rain = 0
KSC1 072241Z 00008KT 02/02 A3023 RMK A01 T00230022  RH  099%=      5-min Rain = 0
KSC1 072242Z 36008KT 02/02 A3023 RMK A01 T00230022  RH  099%=      5-min Rain = 0
KSC1 072243Z 36007KT 02/02 A3023 RMK A01 T00230022  RH  099%=      5-min Rain = 0
KSC1 072244Z 36007KT 02/02 A3023 RMK A01 T00230022  RH  099%=      5-min Rain = 0
KSC1 072245Z 34007KT 02/02 A3023 RMK A01 T00230022  RH  099%=      5-min Rain = 0
KSC1 072246Z 35008KT 02/02 A3023 RMK A01 T00230022  RH  099%=      5-min Rain = 0
KSC1 072247Z 35006KT 02/02 A3024 RMK A01 T00230022  RH  099%=      5-min Rain = 0
KSC1 072248Z 35008KT 02/02 A3024 RMK A01 T00230022  RH  099%=      5-min Rain = 0
KSC1 072249Z 34006KT 02/02 A3024 RMK A01 T00230022  RH  099%=      5-min Rain = 0
KSC1 072250Z 35007KT 02/02 A3024 RMK A01 T00230022  RH  099%=      5-min Rain = 0
KSC1 072251Z 36007KT 02/02 A3024 RMK A01 T00230022  RH  099%=      5-min Rain = 0
KSC1 072252Z 35009KT 02/02 A3024 RMK A01 T00230022  RH  099%=      5-min Rain = 0
KSC1 072253Z 00007KT 02/02 A3024 RMK A01 T00230022  RH  099%=      5-min Rain = 0
KSC1 072254Z 36007KT 02/02 A3024 RMK A01 T00230022  RH  099%=      5-min Rain = 0
KSC1 072255Z 00006KT 02/02 A3024 RMK A01 T00230022  RH  099%=      5-min Rain = 0
KSC1 072256Z 01005KT 02/02 A3024 RMK A01 T00230022  RH  099%=      5-min Rain = 0
KSC1 072257Z 00007KT 02/02 A3024 RMK A01 T00230021  RH  099%=      5-min Rain = 0
KSC1 072258Z 00007KT 02/02 A3024 RMK A01 T00230021  RH  099%=      5-min Rain = 0
KSC1 072259Z 01006KT 02/02 A3024 RMK A01 T00230021  RH  099%=      5-min Rain = 0
KSC1 072300Z 35005KT 02/02 A3024 RMK A01 T00230021  RH  099%=      5-min Rain = 0
KSC1 072301Z 35008KT 02/02 A3024 RMK A01 T00230021  RH  099%=      5-min Rain = 0
KSC1 072302Z 35010KT 02/02 A3024 RMK A01 T00230021  RH  099%=      5-min Rain = 0
KSC1 072303Z 00008KT 02/02 A3024 RMK A01 T00230020  RH  098%=      5-min Rain = 0
KSC1 072304Z 36008KT 02/02 A3024 RMK A01 T00230020  RH  098%=      5-min Rain = 0
KSC1 072305Z 00008KT 02/02 A3024 RMK A01 T00220020  RH  098%=      5-min Rain = 0
KSC1 072306Z 36006KT 02/02 A3024 RMK A01 T00220020  RH  098%=      5-min Rain = 0
KSC1 072307Z 00007KT 02/02 A3024 RMK A01 T00230020  RH  098%=      5-min Rain = 0
KSC1 072308Z 01006KT 02/02 A3025 RMK A01 T00230020  RH  098%=      5-min Rain = 0
KSC1 072309Z 35005KT 02/02 A3025 RMK A01 T00230020  RH  098%=      5-min Rain = 0
KSC1 072310Z 35006KT 02/02 A3025 RMK A01 T00230020  RH  098%=      5-min Rain = 0
KSC1 072311Z 35006KT 02/02 A3025 RMK A01 T00230021  RH  098%=      5-min Rain = 0
KSC1 072312Z 34008KT 02/02 A3025 RMK A01 T00230021  RH  099%=      5-min Rain = 0
KSC1 072313Z 35008KT 02/02 A3025 RMK A01 T00230021  RH  099%=      5-min Rain = 0
KSC1 072314Z 36007KT 02/02 A3025 RMK A01 T00230021  RH  099%=      5-min Rain = 0
KSC1 072315Z 35005KT 02/02 A3025 RMK A01 T00230021  RH  099%=      5-min Rain = 0
KSC1 072316Z 35007KT 02/02 A3025 RMK A01 T00230021  RH  099%=      5-min Rain = 0
KSC1 072317Z 35007KT 02/02 A3025 RMK A01 T00230021  RH  099%=      5-min Rain = 0
KSC1 072318Z 35007KT 02/02 A3025 RMK A01 T00230021  RH  099%=      5-min Rain = 0
KSC1 072319Z 35006KT 02/02 A3025 RMK A01 T00230021  RH  099%=      5-min Rain = 0
KSC1 072320Z 35006KT 02/02 A3025 RMK A01 T00220021  RH  099%=      5-min Rain = 0
KSC1 072321Z 35007KT 02/02 A3025 RMK A01 T00220021  RH  099%=      5-min Rain = 0
KSC1 072322Z 35006KT 02/02 A3025 RMK A01 T00230021  RH  099%=      5-min Rain = 0.01
KSC1 072323Z 35005KT 02/02 A3026 RMK A01 T00230022  RH  099%=      5-min Rain = 0
KSC1 072324Z 34004KT 02/02 A3026 RMK A01 T00230021  RH  099%=      5-min Rain = 0
KSC1 072325Z 35006KT 02/02 A3026 RMK A01 T00230022  RH  099%=      5-min Rain = 0
KSC1 072326Z 34006KT 02/02 A3026 RMK A01 T00230022  RH  099%=      5-min Rain = 0
KSC1 072327Z 34007KT 02/02 A3026 RMK A01 T00220022  RH  100%=      5-min Rain = 0
KSC1 072328Z 35009KT 02/02 A3026 RMK A01 T00230022  RH  100%=      5-min Rain = 0
KSC1 072329Z 34008KT 02/02 A3026 RMK A01 T00220021  RH  099%=      5-min Rain = 0
KSC1 072330Z 35007KT 02/02 A3026 RMK A01 T00220021  RH  099%=      5-min Rain = 0
KSC1 072331Z 35007G12KT 02/02 A3026 RMK A01 T00220021  RH  100%=      5-min Rain = 0
KSC1 072332Z 35008KT 02/02 A3026 RMK A01 T00220021  RH  100%=      5-min Rain = 0
KSC1 072333Z 35007KT 02/02 A3026 RMK A01 T00220022  RH  100%=      5-min Rain = 0
KSC1 072334Z 34005KT 02/02 A3026 RMK A01 T00220022  RH  100%=      5-min Rain = 0
KSC1 072335Z 35007KT 02/02 A3026 RMK A01 T00220022  RH  100%=      5-min Rain = 0
KSC1 072336Z 34007KT 02/02 A3026 RMK A01 T00220022  RH  100%=      5-min Rain = 0
KSC1 072337Z 35007KT 02/02 A3026 RMK A01 T00220022  RH  100%=      5-min Rain = 0
KSC1 072338Z 35006KT 02/02 A3026 RMK A01 T00220022  RH  100%=      5-min Rain = 0
KSC1 072339Z 34007KT 02/02 A3026 RMK A01 T00220022  RH  100%=      5-min Rain = 0
KSC1 072340Z 35006KT 02/02 A3026 RMK A01 T00220022  RH  100%=      5-min Rain = 0
KSC1 072341Z 36006KT 02/02 A3026 RMK A01 T00220022  RH  100%=      5-min Rain = 0
KSC1 072342Z 34006KT 02/02 A3026 RMK A01 T00220022  RH  100%=      5-min Rain = 0
KSC1 072343Z 34008KT 02/02 A3026 RMK A01 T00220022  RH  100%=      5-min Rain = 0
KSC1 072344Z 35006KT 02/02 A3026 RMK A01 T00220022  RH  100%=      5-min Rain = 0
KSC1 072345Z 35005KT 02/02 A3026 RMK A01 T00220022  RH  100%=      5-min Rain = 0
KSC1 072346Z 33005KT 02/02 A3026 RMK A01 T00220022  RH  100%=      5-min Rain = 0
KSC1 072347Z 34005KT 02/02 A3026 RMK A01 T00220022  RH  100%=      5-min Rain = 0
KSC1 072348Z 34005KT 02/02 A3026 RMK A01 T00220022  RH  100%=      5-min Rain = 0.01
KSC1 072349Z 34006KT 02/02 A3026 RMK A01 T00230023  RH  100%=      5-min Rain = 0
KSC1 072350Z 34006KT 02/02 A3026 RMK A01 T00230022  RH  100%=      5-min Rain = 0
KSC1 072351Z 34006KT 02/02 A3026 RMK A01 T00230023  RH  100%=      5-min Rain = 0
KSC1 072352Z 33005KT 02/02 A3026 RMK A01 T00230022  RH  100%=      5-min Rain = 0
KSC1 072353Z 34006KT 02/02 A3026 RMK A01 T00230022  RH  100%=      5-min Rain = 0
KSC1 072354Z 34005KT 02/02 A3026 RMK A01 T00220022  RH  100%=      5-min Rain = 0
KSC1 072355Z 34007KT 02/02 A3026 RMK A01 T00230023  RH  100%=      5-min Rain = 0
KSC1 072356Z 34008KT 02/02 A3026 RMK A01 T00230022  RH  100%=      5-min Rain = 0.01
KSC1 072357Z 33008KT 02/02 A3026 RMK A01 T00230022  RH  100%=      5-min Rain = 0
KSC1 072358Z 34009KT 02/02 A3026 RMK A01 T00230022  RH  100%=      5-min Rain = 0
KSC1 072359Z 34006KT 02/02 A3026 RMK A01 T00230022  RH  100%=      5-min Rain = 0
KSC1 080000Z 34006KT 02/02 A3026 RMK A01 T00230022  RH  100%=      5-min Rain = 0
KSC1 080001Z 34006KT 02/02 A3026 RMK A01 T00230023  RH  100%=      5-min Rain = 0
KSC1 080002Z 33006KT 02/02 A3026 RMK A01 T00230022  RH  100%=      5-min Rain = 0
KSC1 080003Z 32006KT 02/02 A3026 RMK A01 T00230022  RH  100%=      5-min Rain = 0
KSC1 080004Z 33005KT 02/02 A3026 RMK A01 T00230023  RH  100%=      5-min Rain = 0
KSC1 080005Z 33006KT 02/02 A3026 RMK A01 T00230023  RH  100%=      5-min Rain = 0.01
KSC1 080006Z 34007KT 02/02 A3026 RMK A01 T00230022  RH  100%=      5-min Rain = 0
KSC1 080007Z 34006KT 02/02 A3026 RMK A01 T00230023  RH  100%=      5-min Rain = 0
KSC1 080008Z 34007KT 02/02 A3026 RMK A01 T00230023  RH  100%=      5-min Rain = 0
KSC1 080009Z 35006KT 02/02 A3025 RMK A01 T00230022  RH  100%=      5-min Rain = 0
KSC1 080010Z 35007KT 02/02 A3025 RMK A01 T00230023  RH  100%=      5-min Rain = 0
KSC1 080011Z 35006KT 02/02 A3025 RMK A01 T00230023  RH  100%=      5-min Rain = 0.01
KSC1 080012Z 35005KT 02/02 A3025 RMK A01 T00230023  RH  100%=      5-min Rain = 0
KSC1 080013Z 35005KT 02/02 A3025 RMK A01 T00230023  RH  100%=      5-min Rain = 0
KSC1 080014Z 35008KT 02/02 A3025 RMK A01 T00230023  RH  100%=      5-min Rain = 0
KSC1 080015Z 34007KT 02/02 A3025 RMK A01 T00230023  RH  100%=      5-min Rain = 0
KSC1 080016Z 35007KT 02/02 A3025 RMK A01 T00230023  RH  100%=      5-min Rain = 0
KSC1 080017Z 35008KT 02/02 A3025 RMK A01 T00230023  RH  100%=      5-min Rain = 0
KSC1 080018Z 36006KT 02/02 A3025 RMK A01 T00230023  RH  100%=      5-min Rain = 0
KSC1 080019Z 36006KT 02/02 A3024 RMK A01 T00230023  RH  100%=      5-min Rain = 0
KSC1 080020Z 36006KT 02/02 A3024 RMK A01 T00230023  RH  100%=      5-min Rain = 0
KSC1 080021Z 00005KT 02/02 A3024 RMK A01 T00230023  RH  100%=      5-min Rain = 0
KSC1 080022Z 00006KT 02/02 A3024 RMK A01 T00230023  RH  100%=      5-min Rain = 0
KSC1 080023Z 36008KT 02/02 A3024 RMK A01 T00230023  RH  100%=      5-min Rain = 0
KSC1 080024Z 35007KT 02/02 A3024 RMK A01 T00230023  RH  100%=      5-min Rain = 0
KSC1 080025Z 00005KT 02/02 A3024 RMK A01 T00230023  RH  100%=      5-min Rain = 0
KSC1 080026Z 01005KT 02/02 A3024 RMK A01 T00230023  RH  100%=      5-min Rain = 0
KSC1 080027Z 01004KT 02/02 A3024 RMK A01 T00230023  RH  100%=      5-min Rain = 0.01
KSC1 080028Z 01005KT 02/02 A3024 RMK A01 T00230023  RH  100%=      5-min Rain = 0
KSC1 080029Z 01005KT 02/02 A3024 RMK A01 T00230023  RH  100%=      5-min Rain = 0
KSC1 080030Z 01005KT 02/02 A3024 RMK A01 T00230023  RH  100%=      5-min Rain = 0
KSC1 080031Z 02005KT 02/02 A3023 RMK A01 T00230023  RH  100%=      5-min Rain = 0
KSC1 080032Z 01005KT 02/02 A3023 RMK A01 T00230023  RH  100%=      5-min Rain = 0
KSC1 080033Z 02005KT 02/02 A3023 RMK A01 T00230023  RH  100%=      5-min Rain = 0
KSC1 080034Z 01006KT 02/02 A3023 RMK A01 T00230023  RH  100%=      5-min Rain = 0
KSC1 080035Z 02006KT 02/02 A3023 RMK A01 T00230023  RH  100%=      5-min Rain = 0
KSC1 080036Z 02006KT 02/02 A3023 RMK A01 T00230023  RH  100%=      5-min Rain = 0
KSC1 080037Z 03005KT 02/02 A3024 RMK A01 T00230023  RH  100%=      5-min Rain = 0
KSC1 080038Z 02005KT 02/02 A3024 RMK A01 T00230023  RH  100%=      5-min Rain = 0
KSC1 080039Z 02006KT 02/02 A3024 RMK A01 T00240023  RH  100%=      5-min Rain = 0
KSC1 080040Z 02007KT 02/02 A3024 RMK A01 T00230023  RH  100%=      5-min Rain = 0
KSC1 080041Z 01005KT 02/02 A3024 RMK A01 T00240023  RH  099%=      5-min Rain = 0
KSC1 080042Z 02004KT 02/02 A3024 RMK A01 T00240023  RH  099%=      5-min Rain = 0
KSC1 080043Z 01004KT 02/02 A3024 RMK A01 T00240023  RH  099%=      5-min Rain = 0
KSC1 080044Z 01005KT 02/02 A3024 RMK A01 T00240023  RH  099%=      5-min Rain = 0
KSC1 080045Z 01006KT 02/02 A3024 RMK A01 T00240023  RH  099%=      5-min Rain = 0
KSC1 080046Z 36005KT 02/02 A3024 RMK A01 T00240023  RH  099%=      5-min Rain = 0
KSC1 080047Z 36006KT 02/02 A3024 RMK A01 T00240023  RH  099%=      5-min Rain = 0
KSC1 080048Z 00006KT 02/02 A3024 RMK A01 T00240023  RH  099%=      5-min Rain = 0
KSC1 080049Z 00005KT 02/02 A3025 RMK A01 T00240023  RH  099%=      5-min Rain = 0
KSC1 080050Z 01005KT 02/02 A3025 RMK A01 T00240023  RH  099%=      5-min Rain = 0
KSC1 080051Z 00005KT 03/02 A3025 RMK A01 T00250023  RH  099%=      5-min Rain = 0
KSC1 080052Z 36004KT 02/02 A3025 RMK A01 T00240023  RH  099%=      5-min Rain = 0
KSC1 080053Z 00004KT 02/02 A3025 RMK A01 T00240023  RH  099%=      5-min Rain = 0
KSC1 080054Z 36005KT 02/02 A3025 RMK A01 T00240023  RH  099%=      5-min Rain = 0
KSC1 080055Z 36005KT 03/02 A3025 RMK A01 T00250023  RH  099%=      5-min Rain = 0
KSC1 080056Z 36004KT 02/02 A3025 RMK A01 T00240023  RH  099%=      5-min Rain = 0
KSC1 080057Z 01004KT 02/02 A3025 RMK A01 T00240023  RH  099%=      5-min Rain = 0
KSC1 080058Z 00003KT 02/02 A3025 RMK A01 T00240023  RH  099%=      5-min Rain = 0
KSC1 080059Z 01003KT 03/02 A3025 RMK A01 T00250023  RH  099%=      5-min Rain = 0
KSC1 080100Z 36003KT 03/02 A3025 RMK A01 T00250023  RH  099%=      5-min Rain = 0
KSC1 080101Z 01004KT 03/02 A3025 RMK A01 T00250024  RH  099%=      5-min Rain = 0
KSC1 080102Z 01004KT 03/02 A3025 RMK A01 T00250024  RH  099%=      5-min Rain = 0
KSC1 080103Z 01005KT 03/02 A3025 RMK A01 T00250024  RH  099%=      5-min Rain = 0
KSC1 080104Z 01003KT 03/02 A3025 RMK A01 T00250024  RH  099%=      5-min Rain = 0
KSC1 080105Z 01005KT 03/02 A3025 RMK A01 T00250024  RH  099%=      5-min Rain = 0
KSC1 080106Z 01004KT 03/02 A3025 RMK A01 T00250024  RH  099%=      5-min Rain = 0
KSC1 080107Z 01005KT 03/02 A3025 RMK A01 T00250024  RH  099%=      5-min Rain = 0
KSC1 080108Z 01003KT 03/02 A3025 RMK A01 T00250024  RH  099%=      5-min Rain = 0
KSC1 080109Z 01004KT 03/02 A3025 RMK A01 T00250024  RH  099%=      5-min Rain = 0
KSC1 080110Z 01004KT 03/02 A3025 RMK A01 T00250024  RH  099%=      5-min Rain = 0
KSC1 080111Z 01004KT 03/02 A3025 RMK A01 T00250024  RH  099%=      5-min Rain = 0
KSC1 080112Z 02004KT 03/02 A3025 RMK A01 T00250024  RH  099%=      5-min Rain = 0
KSC1 080113Z 02004KT 03/02 A3024 RMK A01 T00250024  RH  099%=      5-min Rain = 0
KSC1 080114Z 02004KT 03/02 A3024 RMK A01 T00250024  RH  099%=      5-min Rain = 0
KSC1 080115Z 02004KT 03/02 A3024 RMK A01 T00250023  RH  099%=      5-min Rain = 0
KSC1 080116Z 02005KT 03/02 A3024 RMK A01 T00260024  RH  099%=      5-min Rain = 0
KSC1 080117Z 02005KT 03/02 A3024 RMK A01 T00250023  RH  099%=      5-min Rain = 0
KSC1 080118Z 02005KT 03/02 A3024 RMK A01 T00250023  RH  098%=      5-min Rain = 0
KSC1 080119Z 02006KT 03/02 A3024 RMK A01 T00260023  RH  098%=      5-min Rain = 0
KSC1 080120Z 03006KT 03/02 A3024 RMK A01 T00250023  RH  098%=      5-min Rain = 0
KSC1 080121Z 02007KT 03/02 A3024 RMK A01 T00250023  RH  098%=      5-min Rain = 0
KSC1 080122Z 03005KT 03/02 A3024 RMK A01 T00250022  RH  098%=      5-min Rain = 0
KSC1 080123Z 03006KT 03/02 A3024 RMK A01 T00260023  RH  098%=      5-min Rain = 0
KSC1 080124Z 03005KT 03/02 A3024 RMK A01 T00260023  RH  098%=      5-min Rain = 0
KSC1 080125Z 03006KT 03/02 A3024 RMK A01 T00260023  RH  098%=      5-min Rain = 0
KSC1 080126Z 03006KT 03/02 A3024 RMK A01 T00260022  RH  098%=      5-min Rain = 0
KSC1 080127Z 02006KT 03/02 A3024 RMK A01 T00260022  RH  097%=      5-min Rain = 0
KSC1 080128Z 02004KT 03/02 A3025 RMK A01 T00260022  RH  097%=      5-min Rain = 0
KSC1 080129Z 03004KT 03/02 A3025 RMK A01 T00260023  RH  097%=      5-min Rain = 0
KSC1 080130Z 02005KT 03/02 A3025 RMK A01 T00260023  RH  097%=      5-min Rain = 0
KSC1 080131Z 03006KT 03/02 A3025 RMK A01 T00260022  RH  097%=      5-min Rain = 0
KSC1 080132Z 02006KT 03/02 A3025 RMK A01 T00260022  RH  097%=      5-min Rain = 0
KSC1 080133Z 02006KT 03/02 A3025 RMK A01 T00270023  RH  097%=      5-min Rain = 0
KSC1 080134Z 01004KT 03/02 A3025 RMK A01 T00260022  RH  097%=      5-min Rain = 0
KSC1 080135Z 01004KT 03/02 A3025 RMK A01 T00260022  RH  097%=      5-min Rain = 0
KSC1 080136Z 01004KT 03/02 A3025 RMK A01 T00260023  RH  098%=      5-min Rain = 0
KSC1 080137Z 01005KT 03/02 A3025 RMK A01 T00260023  RH  098%=      5-min Rain = 0
KSC1 080138Z 00005KT 03/02 A3026 RMK A01 T00260023  RH  097%=      5-min Rain = 0
KSC1 080139Z 02005KT 03/02 A3026 RMK A01 T00260023  RH  097%=      5-min Rain = 0
KSC1 080140Z 36003KT 03/02 A3026 RMK A01 T00260023  RH  097%=      5-min Rain = 0
KSC1 080141Z 36004KT 03/02 A3026 RMK A01 T00260023  RH  098%=      5-min Rain = 0
KSC1 080142Z 01004KT 03/02 A3026 RMK A01 T00260023  RH  098%=      5-min Rain = 0
KSC1 080143Z 00005KT 03/02 A3026 RMK A01 T00260023  RH  098%=      5-min Rain = 0
KSC1 080144Z 36004KT 03/02 A3026 RMK A01 T00260023  RH  098%=      5-min Rain = 0
KSC1 080145Z 36004KT 03/02 A3026 RMK A01 T00260023  RH  098%=      5-min Rain = 0
KSC1 080146Z 00004KT 03/02 A3027 RMK A01 T00260023  RH  098%=      5-min Rain = 0
KSC1 080147Z 00005KT 03/02 A3027 RMK A01 T00260023  RH  098%=      5-min Rain = 0
KSC1 080148Z 36004KT 03/02 A3027 RMK A01 T00260023  RH  098%=      5-min Rain = 0
KSC1 080149Z 35005KT 03/02 A3027 RMK A01 T00260024  RH  098%=      5-min Rain = 0
KSC1 080150Z 00004KT 03/02 A3027 RMK A01 T00260024  RH  098%=      5-min Rain = 0
KSC1 080151Z 36004KT 03/02 A3027 RMK A01 T00260023  RH  098%=      5-min Rain = 0
KSC1 080152Z 35006KT 03/02 A3027 RMK A01 T00260024  RH  098%=      5-min Rain = 0
KSC1 080153Z 36005KT 03/02 A3027 RMK A01 T00270024  RH  098%=      5-min Rain = 0
KSC1 080154Z 00006KT 03/02 A3027 RMK A01 T00260024  RH  098%=      5-min Rain = 0
KSC1 080155Z 36006KT 03/02 A3027 RMK A01 T00260024  RH  098%=      5-min Rain = 0
KSC1 080156Z 00006KT 03/02 A3027 RMK A01 T00260024  RH  098%=      5-min Rain = 0
KSC1 080157Z 01006KT 03/02 A3027 RMK A01 T00260023  RH  098%=      5-min Rain = 0
KSC1 080158Z 00005KT 03/02 A3027 RMK A01 T00260023  RH  098%=      5-min Rain = 0
KSC1 080159Z 00006KT 03/02 A3027 RMK A01 T00260023  RH  098%=      5-min Rain = 0
KSC1 080200Z 01006KT 03/02 A3027 RMK A01 T00260023  RH  098%=      5-min Rain = 0
KSC1 080201Z 01005KT 03/02 A3027 RMK A01 T00260023  RH  098%=      5-min Rain = 0
KSC1 080202Z 01006KT 03/02 A3027 RMK A01 T00260023  RH  098%=      5-min Rain = 0
KSC1 080203Z 00006KT 03/02 A3027 RMK A01 T00260023  RH  098%=      5-min Rain = 0
KSC1 080204Z 01006KT 03/02 A3027 RMK A01 T00260023  RH  098%=      5-min Rain = 0
KSC1 080205Z 36006KT 03/02 A3027 RMK A01 T00250023  RH  098%=      5-min Rain = 0
KSC1 080206Z 01006KT 03/02 A3027 RMK A01 T00260023  RH  098%=      5-min Rain = 0
KSC1 080207Z 01006KT 03/02 A3027 RMK A01 T00250023  RH  098%=      5-min Rain = 0
KSC1 080208Z 01006KT 03/02 A3027 RMK A01 T00250022  RH  098%=      5-min Rain = 0
KSC1 080209Z 01006KT 03/02 A3027 RMK A01 T00250022  RH  098%=      5-min Rain = 0
KSC1 080210Z 00005KT 03/02 A3027 RMK A01 T00250022  RH  098%=      5-min Rain = 0
KSC1 080211Z 35004KT 03/02 A3027 RMK A01 T00250022  RH  098%=      5-min Rain = 0
KSC1 080212Z 36005KT 03/02 A3027 RMK A01 T00250023  RH  098%=      5-min Rain = 0
KSC1 080213Z 36005KT 03/02 A3027 RMK A01 T00260023  RH  098%=      5-min Rain = 0
KSC1 080214Z 00005KT 03/02 A3027 RMK A01 T00250023  RH  098%=      5-min Rain = 0
KSC1 080215Z 01005KT 03/02 A3027 RMK A01 T00250023  RH  099%=      5-min Rain = 0
KSC1 080216Z 01006KT 03/02 A3027 RMK A01 T00250024  RH  099%=      5-min Rain = 0
KSC1 080217Z 02005KT 03/02 A3027 RMK A01 T00250023  RH  099%=      5-min Rain = 0
KSC1 080218Z 01006KT 03/02 A3027 RMK A01 T00250023  RH  099%=      5-min Rain = 0
KSC1 080219Z 02006KT 03/02 A3026 RMK A01 T00250023  RH  099%=      5-min Rain = 0
KSC1 080220Z 01007KT 03/02 A3026 RMK A01 T00250023  RH  099%=      5-min Rain = 0
KSC1 080221Z 01007KT 02/02 A3026 RMK A01 T00240022  RH  099%=      5-min Rain = 0
KSC1 080222Z 02005KT 03/02 A3026 RMK A01 T00250023  RH  099%=      5-min Rain = 0
KSC1 080223Z 02005KT 02/02 A3026 RMK A01 T00240022  RH  099%=      5-min Rain = 0
KSC1 080224Z 02005KT 02/02 A3026 RMK A01 T00240022  RH  099%=      5-min Rain = 0
KSC1 080225Z 03005KT 02/02 A3026 RMK A01 T00240022  RH  099%=      5-min Rain = 0.01
KSC1 080226Z 02005KT 02/02 A3026 RMK A01 T00240022  RH  099%=      5-min Rain = 0
KSC1 080227Z 01005KT 02/02 A3026 RMK A01 T00240022  RH  099%=      5-min Rain = 0
KSC1 080228Z 01005KT 02/02 A3026 RMK A01 T00240022  RH  099%=      5-min Rain = 0
KSC1 080229Z 00005KT 02/02 A3026 RMK A01 T00240022  RH  099%=      5-min Rain = 0
KSC1 080230Z 01006KT 02/02 A3026 RMK A01 T00240022  RH  099%=      5-min Rain = 0
KSC1 080231Z 00005KT 02/02 A3026 RMK A01 T00240023  RH  099%=      5-min Rain = 0
KSC1 080232Z 00005KT 02/02 A3026 RMK A01 T00240023  RH  099%=      5-min Rain = 0
KSC1 080233Z 01006KT 02/02 A3026 RMK A01 T00240022  RH  099%=      5-min Rain = 0
KSC1 080234Z 00004KT 02/02 A3026 RMK A01 T00240023  RH  099%=      5-min Rain = 0
KSC1 080235Z 36004KT 02/02 A3026 RMK A01 T00240022  RH  099%=      5-min Rain = 0
KSC1 080236Z 35004KT 02/02 A3026 RMK A01 T00240023  RH  099%=      5-min Rain = 0
KSC1 080237Z 00005KT 02/02 A3026 RMK A01 T00240023  RH  099%=      5-min Rain = 0
KSC1 080238Z 35005KT 02/02 A3026 RMK A01 T00240023  RH  099%=      5-min Rain = 0
KSC1 080239Z 01008KT 02/02 A3026 RMK A01 T00240023  RH  099%=      5-min Rain = 0
KSC1 080240Z 00006KT 02/02 A3026 RMK A01 T00230022  RH  099%=      5-min Rain = 0
KSC1 080241Z 01006KT 02/02 A3026 RMK A01 T00240023  RH  099%=      5-min Rain = 0
KSC1 080242Z 35004KT 02/02 A3026 RMK A01 T00240023  RH  099%=      5-min Rain = 0
KSC1 080243Z 35005KT 02/02 A3026 RMK A01 T00230023  RH  099%=      5-min Rain = 0
KSC1 080244Z 35004KT 02/02 A3026 RMK A01 T00240023  RH  099%=      5-min Rain = 0
KSC1 080245Z 36004KT 02/02 A3026 RMK A01 T00230023  RH  100%=      5-min Rain = 0
KSC1 080246Z 35005KT 02/02 A3026 RMK A01 T00240023  RH  100%=      5-min Rain = 0
KSC1 080247Z 35005KT 02/02 A3026 RMK A01 T00230023  RH  100%=      5-min Rain = 0
KSC1 080248Z 35005KT 02/02 A3026 RMK A01 T00240023  RH  100%=      5-min Rain = 0
KSC1 080249Z 35006KT 02/02 A3027 RMK A01 T00230023  RH  100%=      5-min Rain = 0
KSC1 080250Z 35006KT 02/02 A3027 RMK A01 T00230023  RH  100%=      5-min Rain = 0
KSC1 080251Z 35006KT 02/02 A3027 RMK A01 T00230023  RH  100%=      5-min Rain = 0
KSC1 080252Z 35005KT 02/02 A3027 RMK A01 T00230023  RH  100%=      5-min Rain = 0
KSC1 080253Z 35005KT 02/02 A3027 RMK A01 T00230023  RH  100%=      5-min Rain = 0
KSC1 080254Z 36005KT 02/02 A3026 RMK A01 T00230023  RH  100%=      5-min Rain = 0
KSC1 080255Z 35006KT 02/02 A3026 RMK A01 T00230023  RH  100%=      5-min Rain = 0
KSC1 080256Z 36005KT 02/02 A3026 RMK A01 T00230023  RH  100%=      5-min Rain = 0
KSC1 080257Z 36005KT 02/02 A3026 RMK A01 T00230023  RH  100%=      5-min Rain = 0
KSC1 080258Z 01008KT 02/02 A3026 RMK A01 T00230023  RH  100%=      5-min Rain = 0
KSC1 080259Z 01006KT 02/02 A3026 RMK A01 T00230023  RH  100%=      5-min Rain = 0
KSC1 080300Z 01005KT 02/02 A3026 RMK A01 T00230022  RH  100%=      5-min Rain = 0
KSC1 080301Z 01006KT 02/02 A3026 RMK A01 T00220022  RH  100%=      5-min Rain = 0
KSC1 080302Z 01006KT 02/02 A3026 RMK A01 T00230022  RH  100%=      5-min Rain = 0
KSC1 080303Z 01007KT 02/02 A3026 RMK A01 T00230022  RH  100%=      5-min Rain = 0.01
KSC1 080304Z 02007KT 02/02 A3026 RMK A01 T00220022  RH  100%=      5-min Rain = 0
KSC1 080305Z 01006KT 02/02 A3026 RMK A01 T00220022  RH  100%=      5-min Rain = 0
KSC1 080306Z 01006KT 02/02 A3026 RMK A01 T00220021  RH  100%=      5-min Rain = 0
KSC1 080307Z 01006KT 02/02 A3026 RMK A01 T00220022  RH  100%=      5-min Rain = 0
KSC1 080308Z 01005KT 02/02 A3026 RMK A01 T00220022  RH  100%=      5-min Rain = 0
KSC1 080309Z 00004KT 02/02 A3026 RMK A01 T00220022  RH  100%=      5-min Rain = 0
KSC1 080310Z 01004KT 02/02 A3026 RMK A01 T00220022  RH  100%=      5-min Rain = 0
KSC1 080311Z 35004KT 02/02 A3026 RMK A01 T00220022  RH  100%=      5-min Rain = 0
KSC1 080312Z 35006KT 02/02 A3026 RMK A01 T00220022  RH  100%=      5-min Rain = 0
KSC1 080313Z 35005KT 02/02 A3026 RMK A01 T00220022  RH  100%=      5-min Rain = 0
KSC1 080314Z 00005KT 02/02 A3026 RMK A01 T00220022  RH  100%=      5-min Rain = 0
KSC1 080315Z 01005KT 02/02 A3026 RMK A01 T00220022  RH  100%=      5-min Rain = 0
KSC1 080316Z 36005KT 02/02 A3026 RMK A01 T00220022  RH  100%=      5-min Rain = 0
KSC1 080317Z 01005KT 02/02 A3026 RMK A01 T00220022  RH  100%=      5-min Rain = 0
KSC1 080318Z 00004KT 02/02 A3026 RMK A01 T00220022  RH  100%=      5-min Rain = 0
KSC1 080319Z 01006KT 02/02 A3026 RMK A01 T00220022  RH  100%=      5-min Rain = 0
KSC1 080320Z 01007KT 02/02 A3026 RMK A01 T00220022  RH  100%=      5-min Rain = 0
KSC1 080321Z 01007KT 02/02 A3026 RMK A01 T00220021  RH  100%=      5-min Rain = 0
KSC1 080322Z 01007KT 02/02 A3026 RMK A01 T00220021  RH  100%=      5-min Rain = 0
KSC1 080323Z 01006KT 02/02 A3026 RMK A01 T00220021  RH  100%=      5-min Rain = 0
KSC1 080324Z 01007KT 02/02 A3026 RMK A01 T00220021  RH  100%=      5-min Rain = 0
KSC1 080325Z 01007KT 02/02 A3025 RMK A01 T00220021  RH  100%=      5-min Rain = 0
KSC1 080326Z 01006KT 02/02 A3025 RMK A01 T00220021  RH  100%=      5-min Rain = 0
KSC1 080327Z 01004KT 02/02 A3025 RMK A01 T00220021  RH  100%=      5-min Rain = 0
KSC1 080328Z 01006KT 02/02 A3025 RMK A01 T00220021  RH  100%=      5-min Rain = 0
KSC1 080329Z 01005KT 02/02 A3025 RMK A01 T00220021  RH  100%=      5-min Rain = 0
KSC1 080330Z 01007KT 02/02 A3025 RMK A01 T00210021  RH  100%=      5-min Rain = 0
KSC1 080331Z 02005KT 02/02 A3025 RMK A01 T00210021  RH  100%=      5-min Rain = 0
KSC1 080332Z 01006KT 02/02 A3025 RMK A01 T00210021  RH  100%=      5-min Rain = 0
KSC1 080333Z 02005KT 02/02 A3025 RMK A01 T00210021  RH  100%=      5-min Rain = 0
KSC1 080334Z 01006KT 02/02 A3025 RMK A01 T00210021  RH  100%=      5-min Rain = 0
KSC1 080335Z 01005KT 02/02 A3025 RMK A01 T00210021  RH  100%=      5-min Rain = 0
KSC1 080336Z 01005KT 02/02 A3024 RMK A01 T00210021  RH  100%=      5-min Rain = 0
KSC1 080337Z 01007KT 02/02 A3024 RMK A01 T00210021  RH  100%=      5-min Rain = 0
KSC1 080338Z 01007KT 02/02 A3024 RMK A01 T00210021  RH  100%=      5-min Rain = 0
KSC1 080339Z 00007KT 02/02 A3024 RMK A01 T00210021  RH  100%=      5-min Rain = 0
KSC1 080340Z 01008KT 02/02 A3023 RMK A01 T00210021  RH  100%=      5-min Rain = 0
KSC1 080341Z 01009KT 02/02 A3023 RMK A01 T00200020  RH  100%=      5-min Rain = 0
KSC1 080342Z 01007KT 02/02 A3023 RMK A01 T00200020  RH  100%=      5-min Rain = 0
KSC1 080343Z 01008KT 02/02 A3023 RMK A01 T00200020  RH  100%=      5-min Rain = 0
KSC1 080344Z 01007KT 02/02 A3023 RMK A01 T00200020  RH  100%=      5-min Rain = 0.01
KSC1 080345Z 01008KT 02/02 A3023 RMK A01 T00200020  RH  100%=      5-min Rain = 0
KSC1 080346Z 01008KT 02/02 A3023 RMK A01 T00200020  RH  100%=      5-min Rain = 0
KSC1 080347Z 01007KT 02/02 A3022 RMK A01 T00200020  RH  100%=      5-min Rain = 0
KSC1 080348Z 02009KT 02/02 A3022 RMK A01 T00200020  RH  100%=      5-min Rain = 0
KSC1 080349Z 01009KT 02/02 A3022 RMK A01 T00190019  RH  100%=      5-min Rain = 0
KSC1 080350Z 01011KT 02/02 A3021 RMK A01 T00190019  RH  100%=      5-min Rain = 0
KSC1 080351Z 01010KT 02/02 A3021 RMK A01 T00190018  RH  100%=      5-min Rain = 0
KSC1 080352Z 01007KT 02/02 A3021 RMK A01 T00190018  RH  100%=      5-min Rain = 0
KSC1 080353Z 01009KT 02/02 A3022 RMK A01 T00180018  RH  100%=      5-min Rain = 0
KSC1 080354Z 01006KT 02/02 A3022 RMK A01 T00180018  RH  100%=      5-min Rain = 0
KSC1 080355Z 36004KT 02/02 A3022 RMK A01 T00180018  RH  100%=      5-min Rain = 0
KSC1 080356Z 36006KT 02/02 A3023 RMK A01 T00180018  RH  100%=      5-min Rain = 0
KSC1 080357Z 35007KT 02/02 A3023 RMK A01 T00190018  RH  100%=      5-min Rain = 0
KSC1 080358Z 34006KT 02/02 A3024 RMK A01 T00180018  RH  100%=      5-min Rain = 0
KSC1 080359Z 34006KT 02/02 A3024 RMK A01 T00190018  RH  100%=      5-min Rain = 0
KSC1 080400Z 34006KT 02/02 A3024 RMK A01 T00180018  RH  100%=      5-min Rain = 0
KSC1 080401Z 34007KT 02/02 A3024 RMK A01 T00190018  RH  100%=      5-min Rain = 0
KSC1 080402Z 34007KT 02/02 A3024 RMK A01 T00180018  RH  100%=      5-min Rain = 0
KSC1 080403Z 35007KT 02/02 A3024 RMK A01 T00180018  RH  100%=      5-min Rain = 0
KSC1 080404Z 34008KT 02/02 A3023 RMK A01 T00180018  RH  100%=      5-min Rain = 0
KSC1 080405Z 35009KT 02/02 A3023 RMK A01 T00180017  RH  100%=      5-min Rain = 0
KSC1 080406Z 35008KT 02/02 A3023 RMK A01 T00170017  RH  100%=      5-min Rain = 0
KSC1 080407Z 36007KT 02/02 A3023 RMK A01 T00170016  RH  099%=      5-min Rain = 0
KSC1 080408Z 35007KT 02/02 A3023 RMK A01 T00170016  RH  099%=      5-min Rain = 0
KSC1 080409Z 35010KT 02/02 A3024 RMK A01 T00170016  RH  099%=      5-min Rain = 0
KSC1 080410Z 34009KT 02/02 A3024 RMK A01 T00170016  RH  099%=      5-min Rain = 0
KSC1 080411Z 33008KT 02/02 A3024 RMK A01 T00170016  RH  099%=      5-min Rain = 0
KSC1 080412Z 35006KT 02/02 A3024 RMK A01 T00160015  RH  099%=      5-min Rain = 0
KSC1 080413Z 34007KT 02/02 A3024 RMK A01 T00170016  RH  099%=      5-min Rain = 0
KSC1 080414Z 34007KT 02/02 A3024 RMK A01 T00170016  RH  099%=      5-min Rain = 0
KSC1 080415Z 00007KT 02/02 A3025 RMK A01 T00170016  RH  099%=      5-min Rain = 0
KSC1 080416Z 34007KT 02/02 A3025 RMK A01 T00170016  RH  099%=      5-min Rain = 0
KSC1 080417Z 35008KT 02/02 A3025 RMK A01 T00170016  RH  099%=      5-min Rain = 0
KSC1 080418Z 36009KT 02/02 A3025 RMK A01 T00170016  RH  099%=      5-min Rain = 0
KSC1 080419Z 35007KT 02/02 A3025 RMK A01 T00170016  RH  099%=      5-min Rain = 0
KSC1 080420Z 34005KT 02/02 A3024 RMK A01 T00170016  RH  099%=      5-min Rain = 0
KSC1 080421Z 34007KT 02/02 A3024 RMK A01 T00170016  RH  099%=      5-min Rain = 0
KSC1 080422Z 35008KT 02/02 A3024 RMK A01 T00170017  RH  099%=      5-min Rain = 0
KSC1 080423Z 35009KT 02/02 A3024 RMK A01 T00180017  RH  099%=      5-min Rain = 0
KSC1 080424Z 35009KT 02/02 A3024 RMK A01 T00170016  RH  099%=      5-min Rain = 0
KSC1 080425Z 35007KT 02/02 A3024 RMK A01 T00170016  RH  099%=      5-min Rain = 0
KSC1 080426Z 35005KT 02/02 A3024 RMK A01 T00170016  RH  099%=      5-min Rain = 0
KSC1 080427Z 35007KT 02/02 A3024 RMK A01 T00170016  RH  100%=      5-min Rain = 0
KSC1 080428Z 34007KT 02/02 A3024 RMK A01 T00170017  RH  100%=      5-min Rain = 0
KSC1 080429Z 35006KT 02/02 A3024 RMK A01 T00170017  RH  100%=      5-min Rain = 0
KSC1 080430Z 36006KT 02/02 A3024 RMK A01 T00170017  RH  100%=      5-min Rain = 0
KSC1 080431Z 34008KT 02/02 A3025 RMK A01 T00170017  RH  100%=      5-min Rain = 0
KSC1 080432Z 34009KT 02/02 A3025 RMK A01 T00170016  RH  100%=      5-min Rain = 0
KSC1 080433Z 35007KT 02/02 A3025 RMK A01 T00160016  RH  100%=      5-min Rain = 0
KSC1 080434Z 35008KT 02/02 A3025 RMK A01 T00160016  RH  100%=      5-min Rain = 0
KSC1 080435Z 35006KT 02/02 A3025 RMK A01 T00160016  RH  100%=      5-min Rain = 0
KSC1 080436Z 35009KT 02/02 A3025 RMK A01 T00160015  RH  100%=      5-min Rain = 0
KSC1 080437Z 35008KT 02/02 A3025 RMK A01 T00160015  RH  099%=      5-min Rain = 0
KSC1 080438Z 34009KT 02/02 A3025 RMK A01 T00160015  RH  099%=      5-min Rain = 0
KSC1 080439Z 36007KT 02/02 A3025 RMK A01 T00160015  RH  099%=      5-min Rain = 0
KSC1 080440Z 35007KT 02/02 A3024 RMK A01 T00160015  RH  099%=      5-min Rain = 0
KSC1 080441Z 36006KT 02/02 A3024 RMK A01 T00160015  RH  099%=      5-min Rain = 0
KSC1 080442Z 00008KT 02/02 A3024 RMK A01 T00160015  RH  099%=      5-min Rain = 0
KSC1 080443Z 35006KT 02/02 A3024 RMK A01 T00160015  RH  100%=      5-min Rain = 0
KSC1 080444Z 00007KT 02/02 A3024 RMK A01 T00160015  RH  100%=      5-min Rain = 0
KSC1 080445Z 00006KT 02/02 A3024 RMK A01 T00160015  RH  100%=      5-min Rain = 0
KSC1 080446Z 01006KT 02/02 A3025 RMK A01 T00160015  RH  100%=      5-min Rain = 0
KSC1 080447Z 00005KT 02/02 A3025 RMK A01 T00160015  RH  100%=      5-min Rain = 0.01
KSC1 080448Z 36004KT 02/02 A3025 RMK A01 T00160015  RH  100%=      5-min Rain = 0
KSC1 080449Z 02006KT 02/02 A3025 RMK A01 T00160015  RH  100%=      5-min Rain = 0
KSC1 080450Z 01005KT 02/02 A3025 RMK A01 T00160015  RH  100%=      5-min Rain = 0
KSC1 080451Z 35006KT 02/02 A3025 RMK A01 T00160016  RH  100%=      5-min Rain = 0
KSC1 080452Z 00006KT 02/02 A3025 RMK A01 T00160016  RH  100%=      5-min Rain = 0
KSC1 080453Z 36006KT 02/02 A3025 RMK A01 T00160016  RH  100%=      5-min Rain = 0
KSC1 080454Z 00006KT 02/02 A3025 RMK A01 T00160016  RH  100%=      5-min Rain = 0.01
KSC1 080455Z 02006KT 02/02 A3025 RMK A01 T00160016  RH  100%=      5-min Rain = 0
KSC1 080456Z 01005KT 02/02 A3025 RMK A01 T00160016  RH  100%=      5-min Rain = 0
KSC1 080457Z 01007KT 02/02 A3025 RMK A01 T00160016  RH  100%=      5-min Rain = 0
KSC1 080458Z 01006KT 02/02 A3025 RMK A01 T00150015  RH  100%=      5-min Rain = 0.01
KSC1 080459Z 01006KT 02/02 A3025 RMK A01 T00160016  RH  100%=      5-min Rain = 0
KSC1 080500Z 36008KT 02/02 A3024 RMK A01 T00160016  RH  100%=      5-min Rain = 0
KSC1 080501Z 01006KT 02/02 A3024 RMK A01 T00160016  RH  100%=      5-min Rain = 0.01
KSC1 080502Z 01007KT 02/02 A3024 RMK A01 T00160015  RH  100%=      5-min Rain = 0
KSC1 080503Z 01007KT 02/02 A3024 RMK A01 T00160016  RH  100%=      5-min Rain = 0
KSC1 080504Z 01008KT 02/02 A3024 RMK A01 T00160016  RH  100%=      5-min Rain = 0
KSC1 080505Z 01008KT 02/02 A3024 RMK A01 T00160016  RH  100%=      5-min Rain = 0.01
KSC1 080506Z 01009KT 02/02 A3024 RMK A01 T00160015  RH  100%=      5-min Rain = 0
KSC1 080507Z 01008KT 02/02 A3023 RMK A01 T00150015  RH  100%=      5-min Rain = 0
KSC1 080508Z 01009KT 02/02 A3023 RMK A01 T00150015  RH  100%=      5-min Rain = 0
KSC1 080509Z 01007KT 02/02 A3023 RMK A01 T00150015  RH  100%=      5-min Rain = 0.01
KSC1 080510Z 01008KT 02/02 A3023 RMK A01 T00150015  RH  100%=      5-min Rain = 0
KSC1 080511Z 02008KT 02/02 A3023 RMK A01 T00150015  RH  100%=      5-min Rain = 0
KSC1 080512Z 02009KT 02/02 A3023 RMK A01 T00150015  RH  100%=      5-min Rain = 0
KSC1 080513Z 01008KT 02/02 A3023 RMK A01 T00150015  RH  100%=      5-min Rain = 0
KSC1 080514Z 02007KT 02/02 A3023 RMK A01 T00150015  RH  100%=      5-min Rain = 0
KSC1 080515Z 01008KT 02/02 A3023 RMK A01 T00150015  RH  100%=      5-min Rain = 0
KSC1 080516Z 01006KT 02/02 A3023 RMK A01 T00150015  RH  100%=      5-min Rain = 0.01
KSC1 080517Z 01006KT 02/02 A3023 RMK A01 T00150015  RH  100%=      5-min Rain = 0
KSC1 080518Z 01005KT 02/02 A3023 RMK A01 T00150015  RH  100%=      5-min Rain = 0
KSC1 080519Z 00005KT 02/02 A3023 RMK A01 T00150015  RH  100%=      5-min Rain = 0
KSC1 080520Z 36006KT 02/02 A3024 RMK A01 T00150015  RH  100%=      5-min Rain = 0
KSC1 080521Z 36005KT 02/02 A3024 RMK A01 T00150015  RH  100%=      5-min Rain = 0
KSC1 080522Z 35005KT 02/02 A3024 RMK A01 T00150015  RH  100%=      5-min Rain = 0
KSC1 080523Z 35007KT 02/02 A3024 RMK A01 T00150015  RH  100%=      5-min Rain = 0
KSC1 080524Z 36008KT 02/02 A3024 RMK A01 T00150015  RH  100%=      5-min Rain = 0
KSC1 080525Z 35005KT 02/02 A3024 RMK A01 T00150015  RH  100%=      5-min Rain = 0
KSC1 080526Z 35006KT 02/02 A3024 RMK A01 T00150015  RH  100%=      5-min Rain = 0
KSC1 080527Z 35005KT 02/02 A3024 RMK A01 T00150015  RH  100%=      5-min Rain = 0
KSC1 080528Z 35005KT 02/02 A3024 RMK A01 T00150015  RH  100%=      5-min Rain = 0
KSC1 080529Z 35008KT 02/02 A3024 RMK A01 T00150015  RH  100%=      5-min Rain = 0.01
KSC1 080530Z 36009KT 02/02 A3024 RMK A01 T00150015  RH  100%=      5-min Rain = 0
KSC1 080531Z 35007KT 02/02 A3024 RMK A01 T00150015  RH  100%=      5-min Rain = 0
KSC1 080532Z 35009KT 02/02 A3024 RMK A01 T00150015  RH  100%=      5-min Rain = 0
KSC1 080533Z 35008KT 02/02 A3024 RMK A01 T00150015  RH  100%=      5-min Rain = 0
KSC1 080534Z 35005KT 02/02 A3024 RMK A01 T00150015  RH  100%=      5-min Rain = 0
KSC1 080535Z 35005KT 02/02 A3024 RMK A01 T00150015  RH  100%=      5-min Rain = 0
KSC1 080536Z 35006KT 02/02 A3024 RMK A01 T00150015  RH  100%=      5-min Rain = 0
KSC1 080537Z 35006KT 02/02 A3024 RMK A01 T00150015  RH  100%=      5-min Rain = 0
KSC1 080538Z 34005KT 02/02 A3024 RMK A01 T00150015  RH  100%=      5-min Rain = 0
KSC1 080539Z 34005KT 02/02 A3024 RMK A01 T00150015  RH  100%=      5-min Rain = 0
KSC1 080540Z 34006KT 02/02 A3024 RMK A01 T00150015  RH  100%=      5-min Rain = 0
KSC1 080541Z 35007KT 02/02 A3024 RMK A01 T00150015  RH  100%=      5-min Rain = 0
KSC1 080542Z 34006KT 02/02 A3024 RMK A01 T00150015  RH  100%=      5-min Rain = 0
KSC1 080543Z 34007KT 02/02 A3024 RMK A01 T00150015  RH  100%=      5-min Rain = 0
KSC1 080544Z 35006KT 02/02 A3024 RMK A01 T00150015  RH  100%=      5-min Rain = 0
KSC1 080545Z 36006KT 02/02 A3024 RMK A01 T00160016  RH  100%=      5-min Rain = 0
KSC1 080546Z 35006KT 02/02 A3024 RMK A01 T00160016  RH  100%=      5-min Rain = 0
KSC1 080547Z 34008KT 02/02 A3024 RMK A01 T00160016  RH  100%=      5-min Rain = 0
KSC1 080548Z 34006KT 02/02 A3024 RMK A01 T00160016  RH  100%=      5-min Rain = 0
KSC1 080549Z 34005KT 02/02 A3024 RMK A01 T00160016  RH  100%=      5-min Rain = 0
KSC1 080550Z 34004KT 02/02 A3024 RMK A01 T00160016  RH  100%=      5-min Rain = 0
KSC1 080551Z 34005KT 02/02 A3024 RMK A01 T00160016  RH  100%=      5-min Rain = 0
KSC1 080552Z 35005KT 02/02 A3024 RMK A01 T00160016  RH  100%=      5-min Rain = 0
KSC1 080553Z 35008KT 02/02 A3024 RMK A01 T00160016  RH  100%=      5-min Rain = 0
KSC1 080554Z 34007KT 02/02 A3024 RMK A01 T00150015  RH  100%=      5-min Rain = 0
KSC1 080555Z 35007KT 02/02 A3024 RMK A01 T00150015  RH  100%=      5-min Rain = 0
KSC1 080556Z 35005KT 02/02 A3024 RMK A01 T00150015  RH  100%=      5-min Rain = 0
KSC1 080557Z 36007KT 02/02 A3024 RMK A01 T00150015  RH  100%=      5-min Rain = 0
KSC1 080558Z 36009KT 02/02 A3024 RMK A01 T00150015  RH  100%=      5-min Rain = 0
KSC1 080559Z 36007KT 02/02 A3024 RMK A01 T00150015  RH  100%=      5-min Rain = 0

Page generated in 0.0754 seconds.